Time,TemperatureF,DewpointF,PressureIn,WindDirection,WindDirectionDegrees,WindSpeedMPH,WindSpeedGustMPH,Humidity,HourlyPrecipIn,Conditions,Clouds,dailyrainin,SoftwareType,DateUTC
2013-02-16 00:00:00,33.1,9.7,30.41,NNE,13,2.0,2.0,37,0.00,,---,0.00,VWS V13.01,2013-02-16 07:00:00,
2013-02-16 00:05:00,32.7,9.9,30.40,NNE,13,0.0,3.0,38,0.00,,---,0.00,VWS V13.01,2013-02-16 07:05:00,
2013-02-16 00:10:00,32.5,9.7,30.40,NNE,13,0.0,3.0,38,0.00,,---,0.00,VWS V13.01,2013-02-16 07:10:00,
2013-02-16 00:11:00,32.5,9.7,30.41,NNE,13,1.0,3.0,38,0.00,,---,0.00,VWS V13.01,2013-02-16 07:11:00,
2013-02-16 00:15:00,32.5,9.7,30.40,NNE,13,0.0,1.0,38,0.00,,---,0.00,VWS V13.01,2013-02-16 07:15:00,
2013-02-16 00:16:00,32.6,9.8,30.40,NNE,13,0.0,2.0,38,0.00,,---,0.00,VWS V13.01,2013-02-16 07:16:00,
2013-02-16 00:17:00,32.8,10.0,30.40,NW,304,5.0,6.0,38,0.00,,---,0.00,VWS V13.01,2013-02-16 07:17:00,
2013-02-16 00:21:00,33.3,10.4,30.41,NW,304,1.0,6.0,38,0.00,,---,0.00,VWS V13.01,2013-02-16 07:21:00,
2013-02-16 00:23:00,33.4,10.5,30.41,NW,304,0.0,6.0,38,0.00,,---,0.00,VWS V13.01,2013-02-16 07:23:00,
2013-02-16 00:24:00,33.4,9.9,30.41,NW,304,0.0,6.0,37,0.00,,---,0.00,VWS V13.01,2013-02-16 07:24:00,
2013-02-16 00:26:00,33.3,9.9,30.41,NW,305,0.0,6.0,37,0.00,,---,0.00,VWS V13.01,2013-02-16 07:26:00,
2013-02-16 00:28:00,33.2,9.8,30.41,NW,305,3.0,6.0,37,0.00,,---,0.00,VWS V13.01,2013-02-16 07:28:00,
2013-02-16 00:29:00,33.1,10.3,30.41,NW,304,3.0,6.0,38,0.00,,---,0.00,VWS V13.01,2013-02-16 07:29:00,
2013-02-16 00:32:00,33.0,10.2,30.42,NW,305,1.0,3.0,38,0.00,,---,0.00,VWS V13.01,2013-02-16 07:32:00,
2013-02-16 00:35:00,32.9,10.1,30.42,NW,304,2.0,3.0,38,0.00,,---,0.00,VWS V13.01,2013-02-16 07:35:00,
2013-02-16 00:39:00,32.8,10.0,30.41,NW,305,0.0,3.0,38,0.00,,---,0.00,VWS V13.01,2013-02-16 07:39:00,
2013-02-16 00:40:00,32.8,10.0,30.42,NW,304,0.0,3.0,38,0.00,,---,0.00,VWS V13.01,2013-02-16 07:40:00,
2013-02-16 00:41:00,32.7,9.9,30.42,NW,304,0.0,3.0,38,0.00,,---,0.00,VWS V13.01,2013-02-16 07:41:00,
2013-02-16 00:45:00,32.6,9.8,30.42,NW,305,6.0,6.0,38,0.00,,---,0.00,VWS V13.01,2013-02-16 07:45:00,
2013-02-16 00:46:00,32.7,9.9,30.41,NW,305,0.0,6.0,38,0.00,,---,0.00,VWS V13.01,2013-02-16 07:46:00,
2013-02-16 00:47:00,32.7,9.9,30.41,NW,305,3.0,6.0,38,0.00,,---,0.00,VWS V13.01,2013-02-16 07:47:00,
2013-02-16 00:50:00,32.9,10.1,30.41,NNW,340,10.0,10.0,38,0.00,,---,0.00,VWS V13.01,2013-02-16 07:50:00,
2013-02-16 00:51:00,33.0,10.2,30.41,NW,310,5.0,12.0,38,0.00,,---,0.00,VWS V13.01,2013-02-16 07:51:00,
2013-02-16 00:53:00,33.3,10.4,30.41,NNW,327,3.0,12.0,38,0.00,,---,0.00,VWS V13.01,2013-02-16 07:53:00,
2013-02-16 00:55:00,33.5,10.6,30.41,NNW,327,4.0,12.0,38,0.00,,---,0.00,VWS V13.01,2013-02-16 07:55:00,
2013-02-16 00:58:00,33.6,10.7,30.41,NNW,338,5.0,13.0,38,0.00,,---,0.00,VWS V13.01,2013-02-16 07:58:00,
2013-02-16 00:59:00,33.7,10.8,30.41,NW,315,5.0,13.0,38,0.00,,---,0.00,VWS V13.01,2013-02-16 07:59:00,
2013-02-16 01:00:00,33.7,10.8,30.40,NW,318,2.0,7.0,38,0.00,,---,0.00,VWS V13.01,2013-02-16 08:00:00,
2013-02-16 01:04:00,33.6,10.7,30.40,NW,322,1.0,7.0,38,0.00,,---,0.00,VWS V13.01,2013-02-16 08:04:00,
2013-02-16 01:05:00,33.6,10.7,30.40,NW,322,1.0,7.0,38,0.00,,---,0.00,VWS V13.01,2013-02-16 08:05:00,
2013-02-16 01:07:00,33.4,10.5,30.40,NW,322,6.0,7.0,38,0.00,,---,0.00,VWS V13.01,2013-02-16 08:07:00,
2013-02-16 01:09:00,33.3,10.4,30.41,NW,322,0.0,7.0,38,0.00,,---,0.00,VWS V13.01,2013-02-16 08:09:00,
2013-02-16 01:12:00,33.0,10.2,30.41,NW,322,0.0,7.0,38,0.00,,---,0.00,VWS V13.01,2013-02-16 08:12:00,
2013-02-16 01:13:00,32.9,10.1,30.40,NW,322,3.0,7.0,38,0.00,,---,0.00,VWS V13.01,2013-02-16 08:13:00,
2013-02-16 01:14:00,32.8,10.0,30.41,NW,322,1.0,7.0,38,0.00,,---,0.00,VWS V13.01,2013-02-16 08:14:00,
2013-02-16 01:19:00,32.4,10.2,30.41,NW,322,2.0,4.0,39,0.00,,---,0.00,VWS V13.01,2013-02-16 08:19:00,
2013-02-16 01:21:00,32.4,10.2,30.42,NW,322,1.0,4.0,39,0.00,,---,0.00,VWS V13.01,2013-02-16 08:21:00,
2013-02-16 01:24:00,32.2,10.0,30.42,NW,322,4.0,5.0,39,0.00,,---,0.00,VWS V13.01,2013-02-16 08:24:00,
2013-02-16 01:27:00,32.0,10.4,30.42,NW,322,0.0,5.0,40,0.00,,---,0.00,VWS V13.01,2013-02-16 08:27:00,
2013-02-16 01:30:00,31.9,10.3,30.42,NW,322,4.0,5.0,40,0.00,,---,0.00,VWS V13.01,2013-02-16 08:30:00,
2013-02-16 01:32:00,31.8,10.2,30.42,NW,322,2.0,6.0,40,0.00,,---,0.00,VWS V13.01,2013-02-16 08:32:00,
2013-02-16 01:34:00,31.8,10.2,30.42,NW,321,3.0,6.0,40,0.00,,---,0.00,VWS V13.01,2013-02-16 08:34:00,
2013-02-16 01:36:00,31.9,10.3,30.42,WNW,295,9.0,11.0,40,0.00,,---,0.00,VWS V13.01,2013-02-16 08:36:00,
2013-02-16 01:39:00,32.2,10.6,30.42,NW,313,4.0,11.0,40,0.00,,---,0.00,VWS V13.01,2013-02-16 08:39:00,
2013-02-16 01:41:00,32.4,10.8,30.42,NW,314,9.0,13.0,40,0.00,,---,0.00,VWS V13.01,2013-02-16 08:41:00,
2013-02-16 01:44:00,32.7,11.1,30.41,WNW,288,5.0,15.0,40,0.00,,---,0.00,VWS V13.01,2013-02-16 08:44:00,
2013-02-16 01:47:00,32.7,10.5,30.41,NW,307,7.0,9.0,39,0.00,,---,0.00,VWS V13.01,2013-02-16 08:47:00,
2013-02-16 01:50:00,32.6,10.4,30.41,NW,309,9.0,13.0,39,0.00,,---,0.00,VWS V13.01,2013-02-16 08:50:00,
2013-02-16 01:52:00,32.6,11.0,30.41,NW,317,11.0,13.0,40,0.00,,---,0.00,VWS V13.01,2013-02-16 08:52:00,
2013-02-16 01:54:00,32.4,10.8,30.42,WNW,299,7.0,13.0,40,0.00,,---,0.00,VWS V13.01,2013-02-16 08:54:00,
2013-02-16 01:55:00,32.4,10.8,30.42,WNW,298,5.0,13.0,40,0.00,,---,0.00,VWS V13.01,2013-02-16 08:55:00,
2013-02-16 01:57:00,32.3,10.7,30.42,NW,304,8.0,13.0,40,0.00,,---,0.00,VWS V13.01,2013-02-16 08:57:00,
2013-02-16 01:58:00,32.3,10.7,30.42,WNW,303,8.0,13.0,40,0.00,,---,0.00,VWS V13.01,2013-02-16 08:58:00,
2013-02-16 02:00:00,32.3,10.7,30.42,WNW,287,5.0,6.0,40,0.00,,---,0.00,VWS V13.01,2013-02-16 09:00:00,
2013-02-16 02:03:00,32.2,10.6,30.42,WNW,298,10.0,12.0,40,0.00,,---,0.00,VWS V13.01,2013-02-16 09:03:00,
2013-02-16 02:05:00,32.1,10.5,30.42,NW,304,6.0,12.0,40,0.00,,---,0.00,VWS V13.01,2013-02-16 09:05:00,
2013-02-16 02:07:00,32.1,10.5,30.42,WNW,298,6.0,12.0,40,0.00,,---,0.00,VWS V13.01,2013-02-16 09:07:00,
2013-02-16 02:09:00,32.1,10.5,30.42,WNW,298,5.0,12.0,40,0.00,,---,0.00,VWS V13.01,2013-02-16 09:09:00,
2013-02-16 02:11:00,32.2,10.6,30.42,WNW,296,6.0,13.0,40,0.00,,---,0.00,VWS V13.01,2013-02-16 09:11:00,
2013-02-16 02:13:00,32.3,10.7,30.42,NW,305,8.0,13.0,40,0.00,,---,0.00,VWS V13.01,2013-02-16 09:13:00,
2013-02-16 02:14:00,32.3,10.7,30.42,NW,309,8.0,13.0,40,0.00,,---,0.00,VWS V13.01,2013-02-16 09:14:00,
2013-02-16 02:15:00,32.4,10.8,30.42,NW,306,4.0,6.0,40,0.00,,---,0.00,VWS V13.01,2013-02-16 09:15:00,
2013-02-16 02:18:00,32.4,10.8,30.42,NW,310,6.0,10.0,40,0.00,,---,0.00,VWS V13.01,2013-02-16 09:18:00,
2013-02-16 02:20:00,32.4,10.8,30.42,NW,325,4.0,10.0,40,0.00,,---,0.00,VWS V13.01,2013-02-16 09:20:00,
2013-02-16 02:21:00,32.4,10.8,30.42,NW,311,7.0,10.0,40,0.00,,---,0.00,VWS V13.01,2013-02-16 09:21:00,
2013-02-16 02:22:00,32.4,10.8,30.41,NW,308,6.0,11.0,40,0.00,,---,0.00,VWS V13.01,2013-02-16 09:22:00,
2013-02-16 02:24:00,32.7,11.1,30.40,NW,324,8.0,11.0,40,0.00,,---,0.00,VWS V13.01,2013-02-16 09:24:00,
2013-02-16 02:27:00,33.0,11.3,30.41,WNW,300,12.0,13.0,40,0.00,,---,0.00,VWS V13.01,2013-02-16 09:27:00,
2013-02-16 02:28:00,33.3,11.0,30.40,WNW,302,3.0,13.0,39,0.00,,---,0.00,VWS V13.01,2013-02-16 09:28:00,
2013-02-16 02:29:00,33.5,11.2,30.41,NW,305,7.0,13.0,39,0.00,,---,0.00,VWS V13.01,2013-02-16 09:29:00,
2013-02-16 02:33:00,33.9,11.6,30.41,NW,306,10.0,12.0,39,0.00,,---,0.00,VWS V13.01,2013-02-16 09:33:00,
2013-02-16 02:34:00,33.9,11.0,30.41,NNW,331,7.0,12.0,38,0.00,,---,0.00,VWS V13.01,2013-02-16 09:34:00,
2013-02-16 02:36:00,34.1,11.2,30.41,WNW,300,5.0,12.0,38,0.00,,---,0.00,VWS V13.01,2013-02-16 09:36:00,
2013-02-16 02:39:00,34.2,11.3,30.41,NW,313,6.0,13.0,38,0.00,,---,0.00,VWS V13.01,2013-02-16 09:39:00,
2013-02-16 02:42:00,34.5,11.5,30.41,NW,311,7.0,20.0,38,0.00,,---,0.00,VWS V13.01,2013-02-16 09:42:00,
2013-02-16 02:43:00,34.8,11.8,30.40,NW,307,13.0,20.0,38,0.00,,---,0.00,VWS V13.01,2013-02-16 09:43:00,
2013-02-16 02:44:00,35.0,11.4,30.40,NW,311,9.0,20.0,37,0.00,,---,0.00,VWS V13.01,2013-02-16 09:44:00,
2013-02-16 02:50:00,35.0,11.4,30.41,NW,317,5.0,9.0,37,0.00,,---,0.00,VWS V13.01,2013-02-16 09:50:00,
2013-02-16 02:51:00,34.9,11.3,30.41,NW,317,3.0,9.0,37,0.00,,---,0.00,VWS V13.01,2013-02-16 09:51:00,
2013-02-16 02:53:00,34.8,11.2,30.40,NW,317,1.0,9.0,37,0.00,,---,0.00,VWS V13.01,2013-02-16 09:53:00,
2013-02-16 02:57:00,34.4,10.8,30.41,NW,317,0.0,9.0,37,0.00,,---,0.00,VWS V13.01,2013-02-16 09:57:00,
2013-02-16 03:00:00,34.2,11.3,30.41,NW,317,2.0,2.0,38,0.00,,---,0.00,VWS V13.01,2013-02-16 10:00:00,
2013-02-16 03:01:00,34.0,11.1,30.42,NW,317,1.0,2.0,38,0.00,,---,0.00,VWS V13.01,2013-02-16 10:01:00,
2013-02-16 03:02:00,33.8,10.9,30.42,NW,317,1.0,3.0,38,0.00,,---,0.00,VWS V13.01,2013-02-16 10:02:00,
2013-02-16 03:06:00,33.3,10.4,30.41,NW,317,3.0,5.0,38,0.00,,---,0.00,VWS V13.01,2013-02-16 10:06:00,
2013-02-16 03:07:00,33.2,10.4,30.42,NW,317,2.0,5.0,38,0.00,,---,0.00,VWS V13.01,2013-02-16 10:07:00,
2013-02-16 03:09:00,32.9,10.7,30.41,NW,317,2.0,5.0,39,0.00,,---,0.00,VWS V13.01,2013-02-16 10:09:00,
2013-02-16 03:12:00,32.5,10.3,30.42,NW,317,1.0,5.0,39,0.00,,---,0.00,VWS V13.01,2013-02-16 10:12:00,
2013-02-16 03:13:00,32.4,10.2,30.42,NW,317,0.0,5.0,39,0.00,,---,0.00,VWS V13.01,2013-02-16 10:13:00,
2013-02-16 03:14:00,32.2,10.0,30.43,NW,317,0.0,5.0,39,0.00,,---,0.00,VWS V13.01,2013-02-16 10:14:00,
2013-02-16 03:15:00,32.1,10.5,30.43,NW,317,0.0,0.0,40,0.00,,---,0.00,VWS V13.01,2013-02-16 10:15:00,
2013-02-16 03:17:00,31.9,10.3,30.43,NW,317,0.0,0.0,40,0.00,,---,0.00,VWS V13.01,2013-02-16 10:17:00,
2013-02-16 03:18:00,31.8,10.2,30.43,NW,317,0.0,0.0,40,0.00,,---,0.00,VWS V13.01,2013-02-16 10:18:00,
2013-02-16 03:20:00,31.5,10.0,30.43,NW,317,0.0,0.0,40,0.00,,---,0.00,VWS V13.01,2013-02-16 10:20:00,
2013-02-16 03:22:00,31.2,10.2,30.42,NW,317,0.0,0.0,41,0.00,,---,0.00,VWS V13.01,2013-02-16 10:22:00,
2013-02-16 03:23:00,31.1,10.2,30.43,NW,317,0.0,0.0,41,0.00,,---,0.00,VWS V13.01,2013-02-16 10:23:00,
2013-02-16 03:26:00,30.6,9.7,30.43,NW,317,0.0,2.0,41,0.00,,---,0.00,VWS V13.01,2013-02-16 10:26:00,
2013-02-16 03:28:00,30.3,10.0,30.44,NW,317,0.0,2.0,42,0.00,,---,0.00,VWS V13.01,2013-02-16 10:28:00,
2013-02-16 03:29:00,30.1,9.8,30.44,NW,317,1.0,2.0,42,0.00,,---,0.00,VWS V13.01,2013-02-16 10:29:00,
2013-02-16 03:33:00,29.7,10.0,30.44,NW,317,0.0,1.0,43,0.00,,---,0.00,VWS V13.01,2013-02-16 10:33:00,
2013-02-16 03:34:00,29.6,9.9,30.44,NW,317,0.0,1.0,43,0.00,,---,0.00,VWS V13.01,2013-02-16 10:34:00,
2013-02-16 03:36:00,29.4,9.7,30.44,NW,317,1.0,3.0,43,0.00,,---,0.00,VWS V13.01,2013-02-16 10:36:00,
2013-02-16 03:41:00,29.6,9.9,30.44,NW,317,0.0,3.0,43,0.00,,---,0.00,VWS V13.01,2013-02-16 10:41:00,
2013-02-16 03:43:00,29.7,10.0,30.44,NW,317,0.0,3.0,43,0.00,,---,0.00,VWS V13.01,2013-02-16 10:43:00,
2013-02-16 03:44:00,29.7,10.0,30.44,NW,317,0.0,3.0,43,0.00,,---,0.00,VWS V13.01,2013-02-16 10:44:00,
2013-02-16 03:46:00,29.7,10.0,30.44,NW,317,0.0,0.0,43,0.00,,---,0.00,VWS V13.01,2013-02-16 10:46:00,
2013-02-16 03:48:00,29.7,10.0,30.44,NW,317,0.0,0.0,43,0.00,,---,0.00,VWS V13.01,2013-02-16 10:48:00,
2013-02-16 03:51:00,29.7,10.0,30.44,NW,317,0.0,0.0,43,0.00,,---,0.00,VWS V13.01,2013-02-16 10:51:00,
2013-02-16 03:53:00,29.7,10.0,30.44,NW,317,0.0,0.0,43,0.00,,---,0.00,VWS V13.01,2013-02-16 10:53:00,
2013-02-16 03:59:00,29.6,9.9,30.44,NW,317,2.0,4.0,43,0.00,,---,0.00,VWS V13.01,2013-02-16 10:59:00,
2013-02-16 04:00:00,29.5,9.8,30.44,NW,317,2.0,2.0,43,0.00,,---,0.00,VWS V13.01,2013-02-16 11:00:00,
2013-02-16 04:04:00,29.0,9.8,30.44,NW,317,0.0,3.0,44,0.00,,---,0.00,VWS V13.01,2013-02-16 11:04:00,
2013-02-16 04:05:00,29.0,9.3,30.44,NW,317,0.0,3.0,43,0.00,,---,0.00,VWS V13.01,2013-02-16 11:05:00,
2013-02-16 04:06:00,29.0,9.3,30.44,NW,317,0.0,3.0,43,0.00,,---,0.00,VWS V13.01,2013-02-16 11:06:00,
2013-02-16 04:07:00,28.9,9.7,30.44,NW,317,0.0,3.0,44,0.00,,---,0.00,VWS V13.01,2013-02-16 11:07:00,
2013-02-16 04:11:00,28.8,9.1,30.44,NW,317,0.0,3.0,43,0.00,,---,0.00,VWS V13.01,2013-02-16 11:11:00,
2013-02-16 04:12:00,28.7,9.6,30.44,NW,317,0.0,3.0,44,0.00,,---,0.00,VWS V13.01,2013-02-16 11:12:00,
2013-02-16 04:14:00,28.6,9.5,30.44,NW,317,0.0,3.0,44,0.00,,---,0.00,VWS V13.01,2013-02-16 11:14:00,
2013-02-16 04:17:00,28.4,9.3,30.45,NW,317,0.0,0.0,44,0.00,,---,0.00,VWS V13.01,2013-02-16 11:17:00,
2013-02-16 04:18:00,28.3,9.2,30.45,NW,317,0.0,0.0,44,0.00,,---,0.00,VWS V13.01,2013-02-16 11:18:00,
2013-02-16 04:20:00,28.2,9.6,30.45,NW,317,3.0,3.0,45,0.00,,---,0.00,VWS V13.01,2013-02-16 11:20:00,
2013-02-16 04:23:00,27.5,9.0,30.45,NW,317,1.0,4.0,45,0.00,,---,0.00,VWS V13.01,2013-02-16 11:23:00,
2013-02-16 04:25:00,27.4,8.9,30.45,NW,317,0.0,4.0,45,0.00,,---,0.00,VWS V13.01,2013-02-16 11:25:00,
2013-02-16 04:26:00,27.4,9.4,30.45,NW,317,2.0,4.0,46,0.00,,---,0.00,VWS V13.01,2013-02-16 11:26:00,
2013-02-16 04:30:00,27.6,9.5,30.45,NW,317,0.0,0.0,46,0.00,,---,0.00,VWS V13.01,2013-02-16 11:30:00,
2013-02-16 04:32:00,27.5,9.0,30.45,NW,317,0.0,0.0,45,0.00,,---,0.00,VWS V13.01,2013-02-16 11:32:00,
2013-02-16 04:35:00,27.4,8.9,30.45,NW,317,0.0,0.0,45,0.00,,---,0.00,VWS V13.01,2013-02-16 11:35:00,
2013-02-16 04:36:00,27.3,8.8,30.45,NW,317,3.0,3.0,45,0.00,,---,0.00,VWS V13.01,2013-02-16 11:36:00,
2013-02-16 04:38:00,27.3,9.3,30.45,NW,317,2.0,4.0,46,0.00,,---,0.00,VWS V13.01,2013-02-16 11:38:00,
2013-02-16 04:39:00,27.4,9.4,30.45,NW,317,0.0,4.0,46,0.00,,---,0.00,VWS V13.01,2013-02-16 11:39:00,
2013-02-16 04:41:00,27.6,9.5,30.45,NW,317,2.0,4.0,46,0.00,,---,0.00,VWS V13.01,2013-02-16 11:41:00,
2013-02-16 04:44:00,28.0,9.9,30.45,NW,317,2.0,4.0,46,0.00,,---,0.00,VWS V13.01,2013-02-16 11:44:00,
2013-02-16 04:45:00,28.0,9.9,30.45,NW,317,0.0,1.0,46,0.00,,---,0.00,VWS V13.01,2013-02-16 11:45:00,
2013-02-16 04:46:00,28.1,10.0,30.45,NW,317,1.0,2.0,46,0.00,,---,0.00,VWS V13.01,2013-02-16 11:46:00,
2013-02-16 04:47:00,28.3,10.2,30.45,NW,317,0.0,2.0,46,0.00,,---,0.00,VWS V13.01,2013-02-16 11:47:00,
2013-02-16 04:51:00,28.4,9.8,30.45,NW,317,0.0,2.0,45,0.00,,---,0.00,VWS V13.01,2013-02-16 11:51:00,
2013-02-16 04:52:00,28.4,9.8,30.45,NW,317,0.0,2.0,45,0.00,,---,0.00,VWS V13.01,2013-02-16 11:52:00,
2013-02-16 04:54:00,28.1,9.5,30.45,NW,317,0.0,2.0,45,0.00,,---,0.00,VWS V13.01,2013-02-16 11:54:00,
2013-02-16 04:59:00,27.5,9.0,30.45,NW,317,0.0,2.0,45,0.00,,---,0.00,VWS V13.01,2013-02-16 11:59:00,
2013-02-16 05:01:00,27.2,9.2,30.48,NW,317,0.0,0.0,46,0.00,,---,0.00,VWS V13.01,2013-02-16 12:01:00,
2013-02-16 05:05:00,26.8,8.8,30.48,NW,317,0.0,0.0,46,0.00,,---,0.00,VWS V13.01,2013-02-16 12:05:00,
2013-02-16 05:06:00,26.6,8.6,30.48,NW,317,0.0,0.0,46,0.00,,---,0.00,VWS V13.01,2013-02-16 12:06:00,
2013-02-16 05:09:00,26.3,8.8,30.48,NW,317,0.0,0.0,47,0.00,,---,0.00,VWS V13.01,2013-02-16 12:09:00,
2013-02-16 05:11:00,26.1,8.6,30.48,NW,317,0.0,0.0,47,0.00,,---,0.00,VWS V13.01,2013-02-16 12:11:00,
2013-02-16 05:14:00,26.0,9.0,30.48,NW,317,1.0,2.0,48,0.00,,---,0.00,VWS V13.01,2013-02-16 12:14:00,
2013-02-16 05:16:00,26.0,9.0,30.48,NW,317,2.0,2.0,48,0.00,,---,0.00,VWS V13.01,2013-02-16 12:16:00,
2013-02-16 05:17:00,26.1,9.1,30.48,NW,317,3.0,3.0,48,0.00,,---,0.00,VWS V13.01,2013-02-16 12:17:00,
2013-02-16 05:20:00,26.3,9.3,30.48,NW,317,0.0,3.0,48,0.00,,---,0.00,VWS V13.01,2013-02-16 12:20:00,
2013-02-16 05:22:00,26.4,9.4,30.48,NW,317,2.0,3.0,48,0.00,,---,0.00,VWS V13.01,2013-02-16 12:22:00,
2013-02-16 05:24:00,26.8,9.8,30.47,NW,317,3.0,4.0,48,0.00,,---,0.00,VWS V13.01,2013-02-16 12:24:00,
2013-02-16 05:26:00,27.0,9.5,30.48,NW,317,2.0,4.0,47,0.00,,---,0.00,VWS V13.01,2013-02-16 12:26:00,
2013-02-16 05:27:00,27.1,9.6,30.48,NW,317,1.0,4.0,47,0.00,,---,0.00,VWS V13.01,2013-02-16 12:27:00,
2013-02-16 05:29:00,27.2,9.6,30.47,NW,317,2.0,4.0,47,0.00,,---,0.00,VWS V13.01,2013-02-16 12:29:00,
2013-02-16 05:31:00,27.2,9.6,30.48,NW,317,2.0,3.0,47,0.00,,---,0.00,VWS V13.01,2013-02-16 12:31:00,
2013-02-16 05:32:00,27.2,9.6,30.48,NW,317,2.0,3.0,47,0.00,,---,0.00,VWS V13.01,2013-02-16 12:32:00,
2013-02-16 05:35:00,27.2,9.6,30.47,NW,317,3.0,4.0,47,0.00,,---,0.00,VWS V13.01,2013-02-16 12:35:00,
2013-02-16 05:38:00,27.2,9.6,30.47,NW,317,3.0,4.0,47,0.00,,---,0.00,VWS V13.01,2013-02-16 12:38:00,
2013-02-16 05:39:00,27.3,9.7,30.47,NW,317,2.0,4.0,47,0.00,,---,0.00,VWS V13.01,2013-02-16 12:39:00,
2013-02-16 05:40:00,27.3,9.7,30.47,NW,317,2.0,4.0,47,0.00,,---,0.00,VWS V13.01,2013-02-16 12:40:00,
2013-02-16 05:41:00,27.3,9.7,30.48,NW,317,2.0,4.0,47,0.00,,---,0.00,VWS V13.01,2013-02-16 12:41:00,
2013-02-16 05:44:00,27.4,9.8,30.48,NW,317,2.0,4.0,47,0.00,,---,0.00,VWS V13.01,2013-02-16 12:44:00,
2013-02-16 05:45:00,27.4,9.8,30.48,NW,317,4.0,4.0,47,0.00,,---,0.00,VWS V13.01,2013-02-16 12:45:00,
2013-02-16 05:46:00,27.5,9.9,30.48,NW,317,3.0,5.0,47,0.00,,---,0.00,VWS V13.01,2013-02-16 12:46:00,
2013-02-16 05:50:00,27.9,9.8,30.47,NW,317,5.0,5.0,46,0.00,,---,0.00,VWS V13.01,2013-02-16 12:50:00,
2013-02-16 05:51:00,28.0,9.9,30.47,NW,317,3.0,5.0,46,0.00,,---,0.00,VWS V13.01,2013-02-16 12:51:00,
2013-02-16 05:52:00,28.1,10.0,30.47,NW,317,3.0,5.0,46,0.00,,---,0.00,VWS V13.01,2013-02-16 12:52:00,
2013-02-16 05:57:00,28.7,10.6,30.47,NW,317,2.0,5.0,46,0.00,,---,0.00,VWS V13.01,2013-02-16 12:57:00,
2013-02-16 05:58:00,28.8,10.1,30.47,NW,317,3.0,5.0,45,0.00,,---,0.00,VWS V13.01,2013-02-16 12:58:00,
2013-02-16 06:01:00,28.8,10.1,30.49,NW,317,4.0,6.0,45,0.00,,---,0.00,VWS V13.01,2013-02-16 13:01:00,
2013-02-16 06:02:00,28.7,10.1,30.49,NW,317,5.0,6.0,45,0.00,,---,0.00,VWS V13.01,2013-02-16 13:02:00,
2013-02-16 06:03:00,28.7,10.1,30.49,NW,317,4.0,6.0,45,0.00,,---,0.00,VWS V13.01,2013-02-16 13:03:00,
2013-02-16 06:07:00,28.4,9.8,30.50,NW,317,3.0,6.0,45,0.00,,---,0.00,VWS V13.01,2013-02-16 13:07:00,
2013-02-16 06:08:00,28.3,9.7,30.50,NW,317,3.0,6.0,45,0.00,,---,0.00,VWS V13.01,2013-02-16 13:08:00,
2013-02-16 06:12:00,28.0,9.4,30.49,NW,317,2.0,6.0,45,0.00,,---,0.00,VWS V13.01,2013-02-16 13:12:00,
2013-02-16 06:13:00,27.8,9.2,30.49,NW,317,1.0,6.0,45,0.00,,---,0.00,VWS V13.01,2013-02-16 13:13:00,
2013-02-16 06:14:00,27.7,9.1,30.49,NW,317,3.0,6.0,45,0.00,,---,0.00,VWS V13.01,2013-02-16 13:14:00,
2013-02-16 06:15:00,27.6,9.5,30.49,NW,317,2.0,4.0,46,0.00,,---,0.00,VWS V13.01,2013-02-16 13:15:00,
2013-02-16 06:18:00,27.2,9.2,30.51,NW,317,1.0,4.0,46,0.00,,---,0.00,VWS V13.01,2013-02-16 13:18:00,
2013-02-16 06:20:00,27.1,9.1,30.51,NW,317,3.0,5.0,46,0.00,,---,0.00,VWS V13.01,2013-02-16 13:20:00,
2013-02-16 06:21:00,27.1,9.1,30.51,NW,317,0.0,5.0,46,0.00,,---,0.00,VWS V13.01,2013-02-16 13:21:00,
2013-02-16 06:24:00,26.8,8.8,30.51,NW,317,0.0,5.0,46,0.00,,---,0.00,VWS V13.01,2013-02-16 13:24:00,
2013-02-16 06:27:00,26.6,9.1,30.50,NW,317,0.0,5.0,47,0.00,,---,0.00,VWS V13.01,2013-02-16 13:27:00,
2013-02-16 06:29:00,26.5,9.0,30.51,NW,317,3.0,5.0,47,0.00,,---,0.00,VWS V13.01,2013-02-16 13:29:00,
2013-02-16 06:30:00,26.5,9.0,30.51,NW,317,3.0,3.0,47,0.00,,---,0.00,VWS V13.01,2013-02-16 13:30:00,
2013-02-16 06:34:00,26.5,9.5,30.51,NW,317,1.0,3.0,48,0.00,,---,0.00,VWS V13.01,2013-02-16 13:34:00,
2013-02-16 06:35:00,26.6,9.6,30.51,NW,317,1.0,5.0,48,0.00,,---,0.00,VWS V13.01,2013-02-16 13:35:00,
2013-02-16 06:38:00,27.1,10.0,30.51,NW,315,2.0,6.0,48,0.00,,---,0.00,VWS V13.01,2013-02-16 13:38:00,
2013-02-16 06:39:00,27.2,10.1,30.51,NW,315,0.0,6.0,48,0.00,,---,0.00,VWS V13.01,2013-02-16 13:39:00,
2013-02-16 06:40:00,27.3,9.7,30.51,NW,316,1.0,6.0,47,0.00,,---,0.00,VWS V13.01,2013-02-16 13:40:00,
2013-02-16 06:43:00,27.3,9.7,30.51,NW,316,1.0,6.0,47,0.00,,---,0.00,VWS V13.01,2013-02-16 13:43:00,
2013-02-16 06:44:00,27.3,9.7,30.51,NW,315,0.0,6.0,47,0.00,,---,0.00,VWS V13.01,2013-02-16 13:44:00,
2013-02-16 06:45:00,27.4,9.8,30.51,NW,315,5.0,5.0,47,0.00,,---,0.00,VWS V13.01,2013-02-16 13:45:00,
2013-02-16 06:46:00,27.4,9.8,30.50,NW,314,2.0,5.0,47,0.00,,---,0.00,VWS V13.01,2013-02-16 13:46:00,
2013-02-16 06:49:00,27.8,10.2,30.49,NW,315,3.0,6.0,47,0.00,,---,0.00,VWS V13.01,2013-02-16 13:49:00,
2013-02-16 06:51:00,28.4,10.8,30.50,NW,315,3.0,7.0,47,0.00,,---,0.00,VWS V13.01,2013-02-16 13:51:00,
2013-02-16 06:53:00,28.9,10.7,30.49,WNW,298,8.0,10.0,46,0.00,,---,0.00,VWS V13.01,2013-02-16 13:53:00,
2013-02-16 06:54:00,29.2,11.0,30.49,NW,308,10.0,10.0,46,0.00,,---,0.00,VWS V13.01,2013-02-16 13:54:00,
2013-02-16 06:55:00,29.6,10.9,30.48,NW,322,6.0,11.0,45,0.00,,---,0.00,VWS V13.01,2013-02-16 13:55:00,
2013-02-16 06:58:00,30.4,11.1,30.48,NW,306,7.0,14.0,44,0.00,,---,0.00,VWS V13.01,2013-02-16 13:58:00,
2013-02-16 06:59:00,30.7,10.9,30.48,NNW,327,4.0,14.0,43,0.00,,---,0.00,VWS V13.01,2013-02-16 13:59:00,
2013-02-16 07:00:00,30.7,10.9,30.49,NNW,327,4.0,6.0,43,0.00,,---,0.00,VWS V13.01,2013-02-16 14:00:00,
2013-02-16 07:05:00,30.8,11.0,30.50,NW,309,6.0,12.0,43,0.00,,---,0.00,VWS V13.01,2013-02-16 14:05:00,
2013-02-16 07:10:00,30.4,10.6,30.50,WNW,300,6.0,12.0,43,0.00,,---,0.00,VWS V13.01,2013-02-16 14:10:00,
2013-02-16 07:11:00,30.3,10.5,30.50,WNW,296,4.0,12.0,43,0.00,,---,0.00,VWS V13.01,2013-02-16 14:11:00,
2013-02-16 07:13:00,30.1,10.3,30.50,WNW,298,7.0,12.0,43,0.00,,---,0.00,VWS V13.01,2013-02-16 14:13:00,
2013-02-16 07:16:00,29.9,10.1,30.50,NNW,328,4.0,10.0,43,0.00,,---,0.00,VWS V13.01,2013-02-16 14:16:00,
2013-02-16 07:18:00,29.7,10.0,30.50,NW,324,6.0,11.0,43,0.00,,---,0.00,VWS V13.01,2013-02-16 14:18:00,
2013-02-16 07:19:00,29.6,10.4,30.50,NW,317,6.0,11.0,44,0.00,,---,0.00,VWS V13.01,2013-02-16 14:19:00,
2013-02-16 07:21:00,29.5,10.3,30.50,NNW,330,9.0,11.0,44,0.00,,---,0.00,VWS V13.01,2013-02-16 14:21:00,
2013-02-16 07:23:00,29.5,10.3,30.50,NW,323,11.0,12.0,44,0.00,,---,0.00,VWS V13.01,2013-02-16 14:23:00,
2013-02-16 07:26:00,29.5,10.3,30.50,NW,316,4.0,12.0,44,0.00,,---,0.00,VWS V13.01,2013-02-16 14:26:00,
2013-02-16 07:27:00,29.4,10.2,30.51,NW,315,9.0,12.0,44,0.00,,---,0.00,VWS V13.01,2013-02-16 14:27:00,
2013-02-16 07:31:00,29.4,10.2,30.51,NW,325,6.0,10.0,44,0.00,,---,0.00,VWS V13.01,2013-02-16 14:31:00,
2013-02-16 07:32:00,29.4,10.2,30.51,NW,325,6.0,10.0,44,0.00,,---,0.00,VWS V13.01,2013-02-16 14:32:00,
2013-02-16 07:33:00,29.4,10.2,30.51,NW,314,6.0,11.0,44,0.00,,---,0.00,VWS V13.01,2013-02-16 14:33:00,
2013-02-16 07:36:00,29.6,10.4,30.50,NW,315,4.0,12.0,44,0.00,,---,0.00,VWS V13.01,2013-02-16 14:36:00,
2013-02-16 07:37:00,29.6,10.4,30.50,NW,315,6.0,12.0,44,0.00,,---,0.00,VWS V13.01,2013-02-16 14:37:00,
2013-02-16 07:39:00,29.7,10.5,30.50,NW,309,10.0,12.0,44,0.00,,---,0.00,VWS V13.01,2013-02-16 14:39:00,
2013-02-16 07:41:00,29.9,10.6,30.50,NW,323,7.0,12.0,44,0.00,,---,0.00,VWS V13.01,2013-02-16 14:41:00,
2013-02-16 07:43:00,30.1,10.3,30.50,NW,321,7.0,12.0,43,0.00,,---,0.00,VWS V13.01,2013-02-16 14:43:00,
2013-02-16 07:44:00,30.2,10.4,30.50,NW,315,5.0,12.0,43,0.00,,---,0.00,VWS V13.01,2013-02-16 14:44:00,
2013-02-16 07:46:00,30.3,10.5,30.50,NW,307,2.0,9.0,43,0.00,,---,0.00,VWS V13.01,2013-02-16 14:46:00,
2013-02-16 07:50:00,30.7,10.9,30.51,NW,307,2.0,9.0,43,0.00,,---,0.00,VWS V13.01,2013-02-16 14:50:00,
2013-02-16 07:51:00,30.7,10.3,30.51,NW,307,3.0,9.0,42,0.00,,---,0.00,VWS V13.01,2013-02-16 14:51:00,
2013-02-16 07:52:00,30.6,10.2,30.51,NW,307,2.0,9.0,42,0.00,,---,0.00,VWS V13.01,2013-02-16 14:52:00,
2013-02-16 07:56:00,30.6,10.2,30.51,NW,307,3.0,9.0,42,0.00,,---,0.00,VWS V13.01,2013-02-16 14:56:00,
2013-02-16 07:57:00,30.5,10.2,30.51,NW,307,2.0,9.0,42,0.00,,---,0.00,VWS V13.01,2013-02-16 14:57:00,
2013-02-16 07:58:00,30.3,10.0,30.51,NW,307,1.0,9.0,42,0.00,,---,0.00,VWS V13.01,2013-02-16 14:58:00,
2013-02-16 08:01:00,30.1,10.3,30.52,NW,307,1.0,3.0,43,0.00,,---,0.00,VWS V13.01,2013-02-16 15:01:00,
2013-02-16 08:05:00,30.1,10.3,30.53,NW,307,4.0,5.0,43,0.00,,---,0.00,VWS V13.01,2013-02-16 15:05:00,
2013-02-16 08:06:00,30.1,10.3,30.53,NW,307,2.0,5.0,43,0.00,,---,0.00,VWS V13.01,2013-02-16 15:06:00,
2013-02-16 08:09:00,30.3,10.5,30.53,NW,307,3.0,5.0,43,0.00,,---,0.00,VWS V13.01,2013-02-16 15:09:00,
2013-02-16 08:10:00,30.4,10.6,30.53,NW,307,4.0,5.0,43,0.00,,---,0.00,VWS V13.01,2013-02-16 15:10:00,
2013-02-16 08:11:00,30.4,10.6,30.53,NW,307,3.0,5.0,43,0.00,,---,0.00,VWS V13.01,2013-02-16 15:11:00,
2013-02-16 08:12:00,30.6,10.8,30.51,NW,307,3.0,5.0,43,0.00,,---,0.00,VWS V13.01,2013-02-16 15:12:00,
2013-02-16 08:17:00,31.0,10.6,30.52,NW,307,3.0,4.0,42,0.00,,---,0.00,VWS V13.01,2013-02-16 15:17:00,
2013-02-16 08:19:00,31.2,11.3,30.52,NW,306,1.0,4.0,43,0.00,,---,0.00,VWS V13.01,2013-02-16 15:19:00,
2013-02-16 08:20:00,31.3,10.9,30.52,NW,306,2.0,4.0,42,0.00,,---,0.00,VWS V13.01,2013-02-16 15:20:00,
2013-02-16 08:25:00,31.9,11.4,30.52,NW,306,2.0,4.0,42,0.00,,---,0.00,VWS V13.01,2013-02-16 15:25:00,
2013-02-16 08:26:00,32.0,11.5,30.52,NW,306,0.0,4.0,42,0.00,,---,0.00,VWS V13.01,2013-02-16 15:26:00,
2013-02-16 08:29:00,32.7,11.6,30.52,NW,307,2.0,4.0,41,0.00,,---,0.00,VWS V13.01,2013-02-16 15:29:00,
2013-02-16 08:34:00,33.5,12.3,30.50,NW,306,0.0,3.0,41,0.00,,---,0.00,VWS V13.01,2013-02-16 15:34:00,
2013-02-16 08:36:00,34.0,12.2,30.50,NW,306,2.0,3.0,40,0.00,,---,0.00,VWS V13.01,2013-02-16 15:36:00,
2013-02-16 08:37:00,34.3,12.5,30.50,NW,307,2.0,4.0,40,0.00,,---,0.00,VWS V13.01,2013-02-16 15:37:00,
2013-02-16 08:38:00,34.4,12.0,30.50,NW,307,4.0,4.0,39,0.00,,---,0.00,VWS V13.01,2013-02-16 15:38:00,
2013-02-16 08:42:00,35.1,11.5,30.49,SW,234,6.0,7.0,37,0.00,,---,0.00,VWS V13.01,2013-02-16 15:42:00,
2013-02-16 08:43:00,35.1,11.5,30.49,SW,230,5.0,7.0,37,0.00,,---,0.00,VWS V13.01,2013-02-16 15:43:00,
2013-02-16 08:44:00,35.2,11.6,30.49,SW,230,4.0,7.0,37,0.00,,---,0.00,VWS V13.01,2013-02-16 15:44:00,
2013-02-16 08:49:00,35.4,11.7,30.49,SW,229,3.0,7.0,37,0.00,,---,0.00,VWS V13.01,2013-02-16 15:49:00,
2013-02-16 08:50:00,35.5,11.8,30.49,SW,225,1.0,7.0,37,0.00,,---,0.00,VWS V13.01,2013-02-16 15:50:00,
2013-02-16 08:54:00,36.0,12.3,30.49,SW,225,3.0,7.0,37,0.00,,---,0.00,VWS V13.01,2013-02-16 15:54:00,
2013-02-16 08:57:00,36.2,11.8,30.49,South,190,4.0,7.0,36,0.00,,---,0.00,VWS V13.01,2013-02-16 15:57:00,
2013-02-16 08:58:00,36.2,11.8,30.49,South,190,4.0,7.0,36,0.00,,---,0.00,VWS V13.01,2013-02-16 15:58:00,
2013-02-16 08:59:00,36.3,11.9,30.49,South,184,5.0,7.0,36,0.00,,---,0.00,VWS V13.01,2013-02-16 15:59:00,
2013-02-16 09:00:00,36.3,11.9,30.49,South,184,5.0,5.0,36,0.00,,---,0.00,VWS V13.01,2013-02-16 16:00:00,
2013-02-16 09:04:00,36.2,11.8,30.49,South,182,3.0,6.0,36,0.00,,---,0.00,VWS V13.01,2013-02-16 16:04:00,
2013-02-16 09:05:00,36.4,12.0,30.49,South,182,3.0,6.0,36,0.00,,---,0.00,VWS V13.01,2013-02-16 16:05:00,
2013-02-16 09:06:00,36.5,12.1,30.49,South,182,3.0,6.0,36,0.00,,---,0.00,VWS V13.01,2013-02-16 16:06:00,
2013-02-16 09:07:00,36.5,11.5,30.49,South,182,3.0,6.0,35,0.00,,---,0.00,VWS V13.01,2013-02-16 16:07:00,
2013-02-16 09:09:00,36.6,11.6,30.49,South,182,2.0,6.0,35,0.00,,---,0.00,VWS V13.01,2013-02-16 16:09:00,
2013-02-16 09:10:00,36.7,11.6,30.48,South,182,2.0,6.0,35,0.00,,---,0.00,VWS V13.01,2013-02-16 16:10:00,
2013-02-16 09:12:00,36.9,11.8,30.48,South,182,2.0,6.0,35,0.00,,---,0.00,VWS V13.01,2013-02-16 16:12:00,
2013-02-16 09:16:00,37.4,12.3,30.48,South,182,4.0,4.0,35,0.00,,---,0.00,VWS V13.01,2013-02-16 16:16:00,
2013-02-16 09:17:00,37.4,12.3,30.48,South,182,3.0,4.0,35,0.00,,---,0.00,VWS V13.01,2013-02-16 16:17:00,
2013-02-16 09:18:00,37.5,12.4,30.47,South,182,2.0,4.0,35,0.00,,---,0.00,VWS V13.01,2013-02-16 16:18:00,
2013-02-16 09:22:00,38.1,12.2,30.47,South,182,1.0,4.0,34,0.00,,---,0.00,VWS V13.01,2013-02-16 16:22:00,
2013-02-16 09:23:00,38.3,12.4,30.47,South,182,2.0,4.0,34,0.00,,---,0.00,VWS V13.01,2013-02-16 16:23:00,
2013-02-16 09:24:00,38.4,12.5,30.47,South,182,1.0,4.0,34,0.00,,---,0.00,VWS V13.01,2013-02-16 16:24:00,
2013-02-16 09:26:00,38.6,12.7,30.47,South,182,0.0,4.0,34,0.00,,---,0.00,VWS V13.01,2013-02-16 16:26:00,
2013-02-16 09:28:00,38.9,12.9,30.47,South,182,0.0,4.0,34,0.00,,---,0.00,VWS V13.01,2013-02-16 16:28:00,
2013-02-16 09:29:00,39.0,13.0,30.46,South,182,1.0,4.0,34,0.00,,---,0.00,VWS V13.01,2013-02-16 16:29:00,
2013-02-16 09:33:00,39.5,12.8,30.45,South,182,0.0,4.0,33,0.00,,---,0.00,VWS V13.01,2013-02-16 16:33:00,
2013-02-16 09:34:00,39.6,12.9,30.45,South,182,0.0,4.0,33,0.00,,---,0.00,VWS V13.01,2013-02-16 16:34:00,
2013-02-16 09:35:00,39.7,13.0,30.45,South,182,0.0,4.0,33,0.00,,---,0.00,VWS V13.01,2013-02-16 16:35:00,
2013-02-16 09:36:00,39.8,13.1,30.45,South,182,0.0,4.0,33,0.00,,---,0.00,VWS V13.01,2013-02-16 16:36:00,
2013-02-16 09:39:00,40.6,13.8,30.45,South,182,0.0,4.0,33,0.00,,---,0.00,VWS V13.01,2013-02-16 16:39:00,
2013-02-16 09:40:00,40.8,13.2,30.45,South,182,1.0,4.0,32,0.00,,---,0.00,VWS V13.01,2013-02-16 16:40:00,
2013-02-16 09:41:00,41.0,13.4,30.45,South,182,3.0,4.0,32,0.00,,---,0.00,VWS V13.01,2013-02-16 16:41:00,
2013-02-16 09:42:00,41.0,13.4,30.44,South,182,1.0,4.0,32,0.00,,---,0.00,VWS V13.01,2013-02-16 16:42:00,
2013-02-16 09:46:00,41.1,13.5,30.45,South,183,3.0,3.0,32,0.00,,---,0.00,VWS V13.01,2013-02-16 16:46:00,
2013-02-16 09:47:00,41.2,12.9,30.45,South,183,1.0,3.0,31,0.00,,---,0.00,VWS V13.01,2013-02-16 16:47:00,
2013-02-16 09:49:00,41.4,13.1,30.44,South,183,0.0,4.0,31,0.00,,---,0.00,VWS V13.01,2013-02-16 16:49:00,
2013-02-16 09:53:00,42.0,13.6,30.43,South,183,2.0,4.0,31,0.00,,---,0.00,VWS V13.01,2013-02-16 16:53:00,
2013-02-16 09:54:00,42.1,13.7,30.43,South,183,3.0,4.0,31,0.00,,---,0.00,VWS V13.01,2013-02-16 16:54:00,
2013-02-16 09:57:00,42.0,12.8,30.43,SSE,168,1.0,6.0,30,0.00,,---,0.00,VWS V13.01,2013-02-16 16:57:00,
2013-02-16 09:58:00,42.1,13.7,30.43,SSE,168,2.0,6.0,31,0.00,,---,0.00,VWS V13.01,2013-02-16 16:58:00,
2013-02-16 09:59:00,42.2,13.8,30.43,SSE,168,2.0,6.0,31,0.00,,---,0.00,VWS V13.01,2013-02-16 16:59:00,
2013-02-16 10:00:00,42.3,13.1,30.43,SSE,168,0.0,2.0,30,0.00,,---,0.00,VWS V13.01,2013-02-16 17:00:00,
2013-02-16 10:03:00,42.7,13.4,30.44,SSE,168,2.0,4.0,30,0.00,,---,0.00,VWS V13.01,2013-02-16 17:03:00,
2013-02-16 10:06:00,43.2,13.9,30.44,SSE,168,4.0,4.0,30,0.00,,---,0.00,VWS V13.01,2013-02-16 17:06:00,
2013-02-16 10:08:00,43.1,13.8,30.44,South,170,1.0,7.0,30,0.00,,---,0.00,VWS V13.01,2013-02-16 17:08:00,
2013-02-16 10:09:00,43.1,13.8,30.44,South,170,2.0,7.0,30,0.00,,---,0.00,VWS V13.01,2013-02-16 17:09:00,
2013-02-16 10:10:00,43.1,13.8,30.44,South,170,0.0,7.0,30,0.00,,---,0.00,VWS V13.01,2013-02-16 17:10:00,
2013-02-16 10:14:00,43.3,14.0,30.44,South,169,4.0,7.0,30,0.00,,---,0.00,VWS V13.01,2013-02-16 17:14:00,
2013-02-16 10:16:00,43.2,13.9,30.44,South,171,2.0,5.0,30,0.00,,---,0.00,VWS V13.01,2013-02-16 17:16:00,
2013-02-16 10:20:00,42.8,13.5,30.43,South,178,5.0,7.0,30,0.00,,---,0.00,VWS V13.01,2013-02-16 17:20:00,
2013-02-16 10:21:00,42.5,13.3,30.43,South,178,4.0,7.0,30,0.00,,---,0.00,VWS V13.01,2013-02-16 17:21:00,
2013-02-16 10:23:00,42.3,13.1,30.44,South,178,4.0,7.0,30,0.00,,---,0.00,VWS V13.01,2013-02-16 17:23:00,
2013-02-16 10:26:00,42.5,13.3,30.44,South,178,3.0,7.0,30,0.00,,---,0.00,VWS V13.01,2013-02-16 17:26:00,
2013-02-16 10:29:00,42.8,13.5,30.43,South,178,1.0,7.0,30,0.00,,---,0.00,VWS V13.01,2013-02-16 17:29:00,
2013-02-16 10:32:00,43.0,12.9,30.43,South,178,4.0,6.0,29,0.00,,---,0.00,VWS V13.01,2013-02-16 17:32:00,
2013-02-16 10:34:00,43.0,13.7,30.43,South,178,4.0,6.0,30,0.00,,---,0.00,VWS V13.01,2013-02-16 17:34:00,
2013-02-16 10:36:00,43.3,14.0,30.43,South,178,4.0,6.0,30,0.00,,---,0.00,VWS V13.01,2013-02-16 17:36:00,
2013-02-16 10:40:00,44.2,14.0,30.42,South,178,5.0,6.0,29,0.00,,---,0.00,VWS V13.01,2013-02-16 17:40:00,
2013-02-16 10:42:00,44.5,14.2,30.43,South,178,2.0,6.0,29,0.00,,---,0.00,VWS V13.01,2013-02-16 17:42:00,
2013-02-16 10:45:00,44.4,13.4,30.41,South,178,2.0,6.0,28,0.00,,---,0.00,VWS V13.01,2013-02-16 17:45:00,
2013-02-16 10:48:00,44.4,14.1,30.42,South,178,1.0,6.0,29,0.00,,---,0.00,VWS V13.01,2013-02-16 17:48:00,
2013-02-16 10:49:00,44.5,14.2,30.42,South,178,1.0,6.0,29,0.00,,---,0.00,VWS V13.01,2013-02-16 17:49:00,
2013-02-16 10:51:00,44.2,13.2,30.42,SSW,196,4.0,11.0,28,0.00,,---,0.00,VWS V13.01,2013-02-16 17:51:00,
2013-02-16 10:54:00,43.9,13.7,30.42,SSW,196,2.0,11.0,29,0.00,,---,0.00,VWS V13.01,2013-02-16 17:54:00,
2013-02-16 10:57:00,44.1,13.9,30.42,SE,142,2.0,11.0,29,0.00,,---,0.00,VWS V13.01,2013-02-16 17:57:00,
2013-02-16 10:59:00,44.4,13.4,30.42,SE,141,4.0,11.0,28,0.00,,---,0.00,VWS V13.01,2013-02-16 17:59:00,
2013-02-16 11:01:00,44.4,13.4,30.42,SE,141,1.0,6.0,28,0.00,,---,0.00,VWS V13.01,2013-02-16 18:01:00,
2013-02-16 11:04:00,44.9,13.8,30.41,SE,142,6.0,6.0,28,0.00,,---,0.00,VWS V13.01,2013-02-16 18:04:00,
2013-02-16 11:06:00,45.2,14.1,30.41,South,178,6.0,9.0,28,0.00,,---,0.00,VWS V13.01,2013-02-16 18:06:00,
2013-02-16 11:07:00,45.1,14.0,30.41,South,178,5.0,9.0,28,0.00,,---,0.00,VWS V13.01,2013-02-16 18:07:00,
2013-02-16 11:09:00,45.0,13.1,30.41,South,186,2.0,9.0,27,0.00,,---,0.00,VWS V13.01,2013-02-16 18:09:00,
2013-02-16 11:11:00,45.0,13.9,30.41,South,186,3.0,9.0,28,0.00,,---,0.00,VWS V13.01,2013-02-16 18:11:00,
2013-02-16 11:14:00,45.0,13.9,30.41,South,177,5.0,9.0,28,0.00,,---,0.00,VWS V13.01,2013-02-16 18:14:00,
2013-02-16 11:16:00,45.0,13.1,30.41,South,177,0.0,6.0,27,0.00,,---,0.00,VWS V13.01,2013-02-16 18:16:00,
2013-02-16 11:18:00,45.2,14.1,30.41,South,176,2.0,6.0,28,0.00,,---,0.00,VWS V13.01,2013-02-16 18:18:00,
2013-02-16 11:21:00,45.8,13.7,30.40,South,175,0.0,6.0,27,0.00,,---,0.00,VWS V13.01,2013-02-16 18:21:00,
2013-02-16 11:24:00,46.4,14.2,30.41,South,170,4.0,7.0,27,0.00,,---,0.00,VWS V13.01,2013-02-16 18:24:00,
2013-02-16 11:26:00,46.4,14.2,30.40,SW,215,6.0,10.0,27,0.00,,---,0.00,VWS V13.01,2013-02-16 18:26:00,
2013-02-16 11:29:00,46.3,14.2,30.40,SSW,205,2.0,10.0,27,0.00,,---,0.00,VWS V13.01,2013-02-16 18:29:00,
2013-02-16 11:34:00,46.6,14.4,30.38,SSW,202,2.0,5.0,27,0.00,,---,0.00,VWS V13.01,2013-02-16 18:34:00,
2013-02-16 11:35:00,46.8,14.6,30.38,SSW,200,3.0,5.0,27,0.00,,---,0.00,VWS V13.01,2013-02-16 18:35:00,
2013-02-16 11:36:00,46.9,13.8,30.38,SE,128,5.0,9.0,26,0.00,,---,0.00,VWS V13.01,2013-02-16 18:36:00,
2013-02-16 11:39:00,46.7,13.6,30.38,SSE,159,3.0,9.0,26,0.00,,---,0.00,VWS V13.01,2013-02-16 18:39:00,
2013-02-16 11:41:00,46.8,13.7,30.38,SE,136,2.0,10.0,26,0.00,,---,0.00,VWS V13.01,2013-02-16 18:41:00,
2013-02-16 11:43:00,46.9,13.8,30.38,SE,136,1.0,10.0,26,0.00,,---,0.00,VWS V13.01,2013-02-16 18:43:00,
2013-02-16 11:44:00,47.0,13.9,30.38,SE,137,0.0,10.0,26,0.00,,---,0.00,VWS V13.01,2013-02-16 18:44:00,
2013-02-16 11:47:00,47.3,14.2,30.38,SE,137,0.0,7.0,26,0.00,,---,0.00,VWS V13.01,2013-02-16 18:47:00,
2013-02-16 11:48:00,47.4,14.2,30.38,SE,137,0.0,7.0,26,0.00,,---,0.00,VWS V13.01,2013-02-16 18:48:00,
2013-02-16 11:52:00,47.7,13.6,30.37,SE,137,0.0,7.0,25,0.00,,---,0.00,VWS V13.01,2013-02-16 18:52:00,
2013-02-16 11:55:00,47.9,14.7,30.37,SE,140,3.0,7.0,26,0.00,,---,0.00,VWS V13.01,2013-02-16 18:55:00,
2013-02-16 11:56:00,48.0,14.8,30.37,SE,139,5.0,7.0,26,0.00,,---,0.00,VWS V13.01,2013-02-16 18:56:00,
2013-02-16 11:58:00,47.7,14.5,30.37,SE,140,3.0,7.0,26,0.00,,---,0.00,VWS V13.01,2013-02-16 18:58:00,
2013-02-16 12:03:00,47.9,14.7,30.35,South,180,6.0,10.0,26,0.00,,---,0.00,VWS V13.01,2013-02-16 19:03:00,
2013-02-16 12:04:00,48.0,14.8,30.35,South,171,6.0,10.0,26,0.00,,---,0.00,VWS V13.01,2013-02-16 19:04:00,
2013-02-16 12:05:00,48.1,14.9,30.35,South,171,1.0,10.0,26,0.00,,---,0.00,VWS V13.01,2013-02-16 19:05:00,
2013-02-16 12:06:00,48.2,14.0,30.35,South,171,2.0,10.0,25,0.00,,---,0.00,VWS V13.01,2013-02-16 19:06:00,
2013-02-16 12:10:00,48.6,15.3,30.34,South,175,4.0,10.0,26,0.00,,---,0.00,VWS V13.01,2013-02-16 19:10:00,
2013-02-16 12:11:00,48.6,14.4,30.35,South,180,3.0,10.0,25,0.00,,---,0.00,VWS V13.01,2013-02-16 19:11:00,
2013-02-16 12:13:00,48.7,14.5,30.34,SSE,166,5.0,10.0,25,0.00,,---,0.00,VWS V13.01,2013-02-16 19:13:00,
2013-02-16 12:17:00,48.9,14.6,30.34,SW,214,4.0,5.0,25,0.00,,---,0.00,VWS V13.01,2013-02-16 19:17:00,
2013-02-16 12:18:00,49.1,14.8,30.34,SSW,196,2.0,6.0,25,0.00,,---,0.00,VWS V13.01,2013-02-16 19:18:00,
2013-02-16 12:21:00,49.6,15.2,30.33,South,175,6.0,8.0,25,0.00,,---,0.00,VWS V13.01,2013-02-16 19:21:00,
2013-02-16 12:24:00,49.6,15.2,30.32,SSE,163,6.0,9.0,25,0.00,,---,0.00,VWS V13.01,2013-02-16 19:24:00,
2013-02-16 12:25:00,49.6,14.3,30.32,South,177,5.0,10.0,24,0.00,,---,0.00,VWS V13.01,2013-02-16 19:25:00,
2013-02-16 12:27:00,49.6,14.3,30.32,SSE,158,7.0,10.0,24,0.00,,---,0.00,VWS V13.01,2013-02-16 19:27:00,
2013-02-16 12:30:00,49.8,14.5,30.32,South,185,5.0,9.0,24,0.00,,---,0.00,VWS V13.01,2013-02-16 19:30:00,
2013-02-16 12:32:00,49.7,14.4,30.32,South,178,8.0,11.0,24,0.00,,---,0.00,VWS V13.01,2013-02-16 19:32:00,
2013-02-16 12:34:00,49.7,15.3,30.32,South,184,5.0,11.0,25,0.00,,---,0.00,VWS V13.01,2013-02-16 19:34:00,
2013-02-16 12:37:00,49.5,14.2,30.31,South,171,4.0,14.0,24,0.00,,---,0.00,VWS V13.01,2013-02-16 19:37:00,
2013-02-16 12:41:00,50.1,14.7,30.31,SE,133,10.0,14.0,24,0.00,,---,0.00,VWS V13.01,2013-02-16 19:41:00,
2013-02-16 12:43:00,50.2,14.8,30.31,SSE,155,4.0,14.0,24,0.00,,---,0.00,VWS V13.01,2013-02-16 19:43:00,
2013-02-16 12:45:00,50.1,14.7,30.31,SE,135,7.0,7.0,24,0.00,,---,0.00,VWS V13.01,2013-02-16 19:45:00,
2013-02-16 12:46:00,50.1,13.8,30.31,ESE,123,5.0,9.0,23,0.00,,---,0.00,VWS V13.01,2013-02-16 19:46:00,
2013-02-16 12:48:00,50.0,13.7,30.30,SSW,194,9.0,12.0,23,0.00,,---,0.00,VWS V13.01,2013-02-16 19:48:00,
2013-02-16 12:51:00,50.3,14.9,30.30,SSE,164,7.0,14.0,24,0.00,,---,0.00,VWS V13.01,2013-02-16 19:51:00,
2013-02-16 12:53:00,50.4,14.0,30.30,SW,216,5.0,14.0,23,0.00,,---,0.00,VWS V13.01,2013-02-16 19:53:00,
2013-02-16 12:54:00,50.3,13.9,30.30,South,179,4.0,14.0,23,0.00,,---,0.00,VWS V13.01,2013-02-16 19:54:00,
2013-02-16 12:56:00,50.4,14.0,30.30,South,172,5.0,14.0,23,0.00,,---,0.00,VWS V13.01,2013-02-16 19:56:00,
2013-02-16 12:59:00,50.4,14.0,30.30,SSE,163,4.0,14.0,23,0.00,,---,0.00,VWS V13.01,2013-02-16 19:59:00,
2013-02-16 13:03:00,50.5,14.1,30.30,SSE,147,8.0,10.0,23,0.00,,---,0.00,VWS V13.01,2013-02-16 20:03:00,
2013-02-16 13:04:00,50.5,14.1,30.30,SSE,165,6.0,12.0,23,0.00,,---,0.00,VWS V13.01,2013-02-16 20:04:00,
2013-02-16 13:06:00,50.8,14.4,30.30,South,180,10.0,14.0,23,0.00,,---,0.00,VWS V13.01,2013-02-16 20:06:00,
2013-02-16 13:09:00,50.9,14.4,30.30,SSE,155,8.0,14.0,23,0.00,,---,0.00,VWS V13.01,2013-02-16 20:09:00,
2013-02-16 13:10:00,51.1,14.6,30.30,South,170,7.0,14.0,23,0.00,,---,0.00,VWS V13.01,2013-02-16 20:10:00,
2013-02-16 13:11:00,51.1,14.6,30.30,South,186,10.0,14.0,23,0.00,,---,0.00,VWS V13.01,2013-02-16 20:11:00,
2013-02-16 13:14:00,50.7,14.3,30.30,South,171,5.0,15.0,23,0.00,,---,0.00,VWS V13.01,2013-02-16 20:14:00,
2013-02-16 13:16:00,50.8,14.4,30.30,South,184,9.0,13.0,23,0.00,,---,0.00,VWS V13.01,2013-02-16 20:16:00,
2013-02-16 13:18:00,50.8,14.4,30.29,SSW,194,6.0,13.0,23,0.00,,---,0.00,VWS V13.01,2013-02-16 20:18:00,
2013-02-16 13:19:00,51.0,14.5,30.29,South,180,6.0,13.0,23,0.00,,---,0.00,VWS V13.01,2013-02-16 20:19:00,
2013-02-16 13:24:00,51.4,13.9,30.29,SSW,207,11.0,14.0,22,0.00,,---,0.00,VWS V13.01,2013-02-16 20:24:00,
2013-02-16 13:25:00,51.3,13.8,30.29,SSW,192,4.0,14.0,22,0.00,,---,0.00,VWS V13.01,2013-02-16 20:25:00,
2013-02-16 13:26:00,51.2,13.7,30.29,South,178,5.0,14.0,22,0.00,,---,0.00,VWS V13.01,2013-02-16 20:26:00,
2013-02-16 13:29:00,51.2,13.7,30.28,SSE,156,4.0,14.0,22,0.00,,---,0.00,VWS V13.01,2013-02-16 20:29:00,
2013-02-16 13:32:00,51.3,13.8,30.28,SSW,192,6.0,12.0,22,0.00,,---,0.00,VWS V13.01,2013-02-16 20:32:00,
2013-02-16 13:35:00,51.2,13.7,30.28,SSE,161,7.0,12.0,22,0.00,,---,0.00,VWS V13.01,2013-02-16 20:35:00,
2013-02-16 13:39:00,51.2,13.7,30.28,SSW,209,5.0,12.0,22,0.00,,---,0.00,VWS V13.01,2013-02-16 20:39:00,
2013-02-16 13:43:00,51.4,13.9,30.27,SSW,205,3.0,12.0,22,0.00,,---,0.00,VWS V13.01,2013-02-16 20:43:00,
2013-02-16 13:44:00,51.4,13.9,30.27,South,169,5.0,12.0,22,0.00,,---,0.00,VWS V13.01,2013-02-16 20:44:00,
2013-02-16 13:45:00,51.4,13.9,30.27,SSE,155,7.0,7.0,22,0.00,,---,0.00,VWS V13.01,2013-02-16 20:45:00,
2013-02-16 13:48:00,52.0,14.4,30.26,SSE,163,6.0,10.0,22,0.00,,---,0.00,VWS V13.01,2013-02-16 20:48:00,
2013-02-16 13:50:00,52.4,14.7,30.26,SSE,164,1.0,10.0,22,0.00,,---,0.00,VWS V13.01,2013-02-16 20:50:00,
2013-02-16 13:53:00,53.1,14.2,30.26,South,183,6.0,10.0,21,0.00,,---,0.00,VWS V13.01,2013-02-16 20:53:00,
2013-02-16 13:54:00,53.1,14.2,30.26,South,182,1.0,10.0,21,0.00,,---,0.00,VWS V13.01,2013-02-16 20:54:00,
2013-02-16 13:58:00,53.0,14.1,30.25,SE,144,4.0,11.0,21,0.00,,---,0.00,VWS V13.01,2013-02-16 20:58:00,
2013-02-16 13:59:00,52.9,14.1,30.25,SSE,157,7.0,11.0,21,0.00,,---,0.00,VWS V13.01,2013-02-16 20:59:00,
2013-02-16 14:03:00,52.4,13.6,30.24,SE,132,4.0,11.0,21,0.00,,---,0.00,VWS V13.01,2013-02-16 21:03:00,
2013-02-16 14:04:00,52.4,13.6,30.24,SSW,196,6.0,11.0,21,0.00,,---,0.00,VWS V13.01,2013-02-16 21:04:00,
2013-02-16 14:06:00,52.6,13.8,30.24,SSE,162,0.0,11.0,21,0.00,,---,0.00,VWS V13.01,2013-02-16 21:06:00,
2013-02-16 14:08:00,53.0,14.1,30.24,SW,220,5.0,11.0,21,0.00,,---,0.00,VWS V13.01,2013-02-16 21:08:00,
2013-02-16 14:10:00,53.2,13.2,30.24,SSW,195,11.0,11.0,20,0.00,,---,0.00,VWS V13.01,2013-02-16 21:10:00,
2013-02-16 14:13:00,52.9,12.9,30.24,SSE,148,6.0,11.0,20,0.00,,---,0.00,VWS V13.01,2013-02-16 21:13:00,
2013-02-16 14:15:00,53.0,14.1,30.24,South,171,4.0,6.0,21,0.00,,---,0.00,VWS V13.01,2013-02-16 21:15:00,
2013-02-16 14:16:00,53.2,14.3,30.23,SSE,162,4.0,8.0,21,0.00,,---,0.00,VWS V13.01,2013-02-16 21:16:00,
2013-02-16 14:18:00,53.2,13.2,30.23,SE,136,4.0,12.0,20,0.00,,---,0.00,VWS V13.01,2013-02-16 21:18:00,
2013-02-16 14:19:00,53.2,14.3,30.23,SE,140,7.0,12.0,21,0.00,,---,0.00,VWS V13.01,2013-02-16 21:19:00,
2013-02-16 14:20:00,53.2,13.2,30.23,SSE,148,6.0,12.0,20,0.00,,---,0.00,VWS V13.01,2013-02-16 21:20:00,
2013-02-16 14:24:00,53.3,13.3,30.23,South,185,9.0,12.0,20,0.00,,---,0.00,VWS V13.01,2013-02-16 21:24:00,
2013-02-16 14:25:00,53.2,13.2,30.23,SSE,163,7.0,12.0,20,0.00,,---,0.00,VWS V13.01,2013-02-16 21:25:00,
2013-02-16 14:27:00,53.3,13.3,30.23,South,171,5.0,12.0,20,0.00,,---,0.00,VWS V13.01,2013-02-16 21:27:00,
2013-02-16 14:29:00,53.4,13.4,30.23,South,169,2.0,12.0,20,0.00,,---,0.00,VWS V13.01,2013-02-16 21:29:00,
2013-02-16 14:30:00,53.4,13.4,30.23,SSE,168,3.0,3.0,20,0.00,,---,0.00,VWS V13.01,2013-02-16 21:30:00,
2013-02-16 14:31:00,53.6,13.5,30.22,SE,132,5.0,7.0,20,0.00,,---,0.00,VWS V13.01,2013-02-16 21:31:00,
2013-02-16 14:33:00,53.7,13.6,30.21,SE,140,5.0,9.0,20,0.00,,---,0.00,VWS V13.01,2013-02-16 21:33:00,
2013-02-16 14:36:00,53.7,13.6,30.21,SSW,210,1.0,13.0,20,0.00,,---,0.00,VWS V13.01,2013-02-16 21:36:00,
2013-02-16 14:37:00,53.8,13.7,30.21,South,172,5.0,13.0,20,0.00,,---,0.00,VWS V13.01,2013-02-16 21:37:00,
2013-02-16 14:39:00,53.9,13.8,30.21,South,171,1.0,13.0,20,0.00,,---,0.00,VWS V13.01,2013-02-16 21:39:00,
2013-02-16 14:40:00,53.9,13.8,30.21,South,171,3.0,13.0,20,0.00,,---,0.00,VWS V13.01,2013-02-16 21:40:00,
2013-02-16 14:44:00,54.0,13.9,30.21,ESE,119,3.0,13.0,20,0.00,,---,0.00,VWS V13.01,2013-02-16 21:44:00,
2013-02-16 14:45:00,53.9,13.8,30.21,ESE,119,2.0,3.0,20,0.00,,---,0.00,VWS V13.01,2013-02-16 21:45:00,
2013-02-16 14:50:00,54.5,14.3,30.21,SSE,157,3.0,7.0,20,0.00,,---,0.00,VWS V13.01,2013-02-16 21:50:00,
2013-02-16 14:54:00,54.4,14.2,30.20,SE,136,4.0,7.0,20,0.00,,---,0.00,VWS V13.01,2013-02-16 21:54:00,
2013-02-16 14:55:00,54.2,14.0,30.20,SE,136,5.0,7.0,20,0.00,,---,0.00,VWS V13.01,2013-02-16 21:55:00,
2013-02-16 14:59:00,54.0,13.9,30.20,SE,126,6.0,10.0,20,0.00,,---,0.00,VWS V13.01,2013-02-16 21:59:00,
2013-02-16 15:01:00,54.0,13.9,30.22,SE,126,1.0,5.0,20,0.00,,---,0.00,VWS V13.01,2013-02-16 22:01:00,
2013-02-16 15:03:00,54.1,13.9,30.22,ESE,120,8.0,10.0,20,0.00,,---,0.00,VWS V13.01,2013-02-16 22:03:00,
2013-02-16 15:05:00,54.2,14.0,30.22,SE,138,2.0,11.0,20,0.00,,---,0.00,VWS V13.01,2013-02-16 22:05:00,
2013-02-16 15:08:00,54.3,14.1,30.22,SE,129,6.0,11.0,20,0.00,,---,0.00,VWS V13.01,2013-02-16 22:08:00,
2013-02-16 15:12:00,54.2,14.0,30.22,SE,136,4.0,11.0,20,0.00,,---,0.00,VWS V13.01,2013-02-16 22:12:00,
2013-02-16 15:14:00,54.3,14.1,30.22,SE,135,4.0,11.0,20,0.00,,---,0.00,VWS V13.01,2013-02-16 22:14:00,
2013-02-16 15:18:00,54.7,13.3,30.22,ESE,121,4.0,7.0,19,0.00,,---,0.00,VWS V13.01,2013-02-16 22:18:00,
2013-02-16 15:22:00,54.8,13.4,30.21,ESE,115,10.0,10.0,19,0.00,,---,0.00,VWS V13.01,2013-02-16 22:22:00,
2013-02-16 15:24:00,54.5,13.1,30.21,ESE,119,1.0,11.0,19,0.00,,---,0.00,VWS V13.01,2013-02-16 22:24:00,
2013-02-16 15:25:00,54.5,13.1,30.21,ESE,119,4.0,11.0,19,0.00,,---,0.00,VWS V13.01,2013-02-16 22:25:00,
2013-02-16 15:29:00,54.6,13.2,30.21,ESE,115,3.0,11.0,19,0.00,,---,0.00,VWS V13.01,2013-02-16 22:29:00,
2013-02-16 15:30:00,54.6,13.2,30.21,ESE,114,6.0,6.0,19,0.00,,---,0.00,VWS V13.01,2013-02-16 22:30:00,
2013-02-16 15:31:00,54.7,13.3,30.21,ESE,115,5.0,6.0,19,0.00,,---,0.00,VWS V13.01,2013-02-16 22:31:00,
2013-02-16 15:36:00,54.8,13.4,30.21,ESE,116,5.0,6.0,19,0.00,,---,0.00,VWS V13.01,2013-02-16 22:36:00,
2013-02-16 15:37:00,54.7,13.3,30.21,ESE,116,3.0,6.0,19,0.00,,---,0.00,VWS V13.01,2013-02-16 22:37:00,
2013-02-16 15:38:00,54.7,13.3,30.21,ESE,116,1.0,6.0,19,0.00,,---,0.00,VWS V13.01,2013-02-16 22:38:00,
2013-02-16 15:41:00,54.9,12.2,30.21,ESE,116,0.0,6.0,18,0.00,,---,0.00,VWS V13.01,2013-02-16 22:41:00,
2013-02-16 15:43:00,55.4,12.6,30.21,ESE,116,0.0,6.0,18,0.00,,---,0.00,VWS V13.01,2013-02-16 22:43:00,
2013-02-16 15:44:00,55.7,14.1,30.21,ESE,116,0.0,6.0,19,0.00,,---,0.00,VWS V13.01,2013-02-16 22:44:00,
2013-02-16 15:45:00,55.9,13.0,30.19,ESE,116,0.0,0.0,18,0.00,,---,0.00,VWS V13.01,2013-02-16 22:45:00,
2013-02-16 15:49:00,57.0,13.9,30.19,ESE,115,0.0,3.0,18,0.00,,---,0.00,VWS V13.01,2013-02-16 22:49:00,
2013-02-16 15:50:00,57.3,14.2,30.19,ESE,115,0.0,3.0,18,0.00,,---,0.00,VWS V13.01,2013-02-16 22:50:00,
2013-02-16 15:51:00,57.7,14.5,30.19,ESE,115,1.0,3.0,18,0.00,,---,0.00,VWS V13.01,2013-02-16 22:51:00,
2013-02-16 15:52:00,58.0,13.4,30.18,ESE,115,1.0,3.0,17,0.00,,---,0.00,VWS V13.01,2013-02-16 22:52:00,
2013-02-16 15:57:00,58.4,13.8,30.18,ESE,115,0.0,4.0,17,0.00,,---,0.00,VWS V13.01,2013-02-16 22:57:00,
2013-02-16 15:59:00,58.0,13.4,30.18,ESE,116,0.0,5.0,17,0.00,,---,0.00,VWS V13.01,2013-02-16 22:59:00,
2013-02-16 16:00:00,57.9,13.4,30.18,ESE,115,1.0,1.0,17,0.00,,---,0.00,VWS V13.01,2013-02-16 23:00:00,
2013-02-16 16:05:00,57.6,11.8,30.20,WNW,292,6.0,13.0,16,0.00,,---,0.00,VWS V13.01,2013-02-16 23:05:00,
2013-02-16 16:07:00,57.6,8.8,30.20,NW,317,6.0,14.0,14,0.00,,---,0.00,VWS V13.01,2013-02-16 23:07:00,
2013-02-16 16:09:00,57.7,8.9,30.20,NNW,327,10.0,15.0,14,0.00,,---,0.00,VWS V13.01,2013-02-16 23:09:00,
2013-02-16 16:10:00,57.8,8.9,30.20,NW,314,7.0,15.0,14,0.00,,---,0.00,VWS V13.01,2013-02-16 23:10:00,
2013-02-16 16:14:00,57.9,7.4,30.20,WNW,290,14.0,16.0,13,0.00,,---,0.00,VWS V13.01,2013-02-16 23:14:00,
2013-02-16 16:15:00,57.8,7.3,30.20,NW,318,19.0,19.0,13,0.00,,---,0.00,VWS V13.01,2013-02-16 23:15:00,
2013-02-16 16:19:00,57.5,7.1,30.20,NW,319,8.0,19.0,13,0.00,,---,0.00,VWS V13.01,2013-02-16 23:19:00,
2013-02-16 16:20:00,57.5,7.1,30.20,WNW,291,9.0,19.0,13,0.00,,---,0.00,VWS V13.01,2013-02-16 23:20:00,
2013-02-16 16:21:00,57.5,7.1,30.20,North,5,12.0,19.0,13,0.00,,---,0.00,VWS V13.01,2013-02-16 23:21:00,
2013-02-16 16:22:00,57.4,7.0,30.20,NNW,332,14.0,20.0,13,0.00,,---,0.00,VWS V13.01,2013-02-16 23:22:00,
2013-02-16 16:25:00,57.2,6.8,30.20,NW,324,7.0,20.0,13,0.00,,---,0.00,VWS V13.01,2013-02-16 23:25:00,
2013-02-16 16:27:00,57.2,6.8,30.20,NW,324,15.0,20.0,13,0.00,,---,0.00,VWS V13.01,2013-02-16 23:27:00,
2013-02-16 16:29:00,57.1,6.7,30.20,NW,322,4.0,20.0,13,0.00,,---,0.00,VWS V13.01,2013-02-16 23:29:00,
2013-02-16 16:32:00,57.1,6.7,30.20,NW,323,14.0,17.0,13,0.00,,---,0.00,VWS V13.01,2013-02-16 23:32:00,
2013-02-16 16:35:00,56.8,6.5,30.19,NNW,331,12.0,17.0,13,0.00,,---,0.00,VWS V13.01,2013-02-16 23:35:00,
2013-02-16 16:37:00,56.7,6.4,30.19,NW,314,10.0,19.0,13,0.00,,---,0.00,VWS V13.01,2013-02-16 23:37:00,
2013-02-16 16:38:00,56.7,6.4,30.19,NW,304,12.0,19.0,13,0.00,,---,0.00,VWS V13.01,2013-02-16 23:38:00,
2013-02-16 16:40:00,56.5,7.9,30.19,NNW,328,15.0,19.0,14,0.00,,---,0.00,VWS V13.01,2013-02-16 23:40:00,
2013-02-16 16:44:00,56.4,7.8,30.20,NW,317,11.0,19.0,14,0.00,,---,0.00,VWS V13.01,2013-02-16 23:44:00,
2013-02-16 16:45:00,56.4,7.8,30.20,North,355,9.0,14.0,14,0.00,,---,0.00,VWS V13.01,2013-02-16 23:45:00,
2013-02-16 16:46:00,56.4,7.8,30.20,NW,320,11.0,14.0,14,0.00,,---,0.00,VWS V13.01,2013-02-16 23:46:00,
2013-02-16 16:47:00,56.4,7.8,30.20,NNW,330,13.0,17.0,14,0.00,,---,0.00,VWS V13.01,2013-02-16 23:47:00,
2013-02-16 16:50:00,56.2,7.7,30.20,NW,318,10.0,18.0,14,0.00,,---,0.00,VWS V13.01,2013-02-16 23:50:00,
2013-02-16 16:51:00,56.2,7.7,30.20,NW,325,10.0,18.0,14,0.00,,---,0.00,VWS V13.01,2013-02-16 23:51:00,
2013-02-16 16:52:00,56.2,7.7,30.20,NW,318,7.0,18.0,14,0.00,,---,0.00,VWS V13.01,2013-02-16 23:52:00,
2013-02-16 16:55:00,56.1,7.6,30.20,NW,321,7.0,18.0,14,0.00,,---,0.00,VWS V13.01,2013-02-16 23:55:00,
2013-02-16 16:56:00,56.1,7.6,30.20,NNW,328,10.0,18.0,14,0.00,,---,0.00,VWS V13.01,2013-02-16 23:56:00,
2013-02-16 16:58:00,55.9,7.4,30.20,NW,324,12.0,18.0,14,0.00,,---,0.00,VWS V13.01,2013-02-16 23:58:00,
2013-02-16 16:59:00,55.9,7.4,30.20,NW,310,5.0,18.0,14,0.00,,---,0.00,VWS V13.01,2013-02-16 23:59:00,
2013-02-16 17:02:00,55.9,7.4,30.19,NNW,330,7.0,12.0,14,0.00,,---,0.00,VWS V13.01,2013-02-17 00:02:00,
2013-02-16 17:03:00,55.8,7.3,30.19,NW,307,9.0,13.0,14,0.00,,---,0.00,VWS V13.01,2013-02-17 00:03:00,
2013-02-16 17:07:00,55.7,7.3,30.19,NW,323,7.0,13.0,14,0.00,,---,0.00,VWS V13.01,2013-02-17 00:07:00,
2013-02-16 17:09:00,55.5,7.1,30.19,WNW,295,6.0,15.0,14,0.00,,---,0.00,VWS V13.01,2013-02-17 00:09:00,
2013-02-16 17:10:00,55.5,7.1,30.19,NW,322,6.0,15.0,14,0.00,,---,0.00,VWS V13.01,2013-02-17 00:10:00,
2013-02-16 17:11:00,55.5,7.1,30.18,NW,311,12.0,15.0,14,0.00,,---,0.00,VWS V13.01,2013-02-17 00:11:00,
2013-02-16 17:16:00,55.2,6.9,30.19,NW,319,7.0,15.0,14,0.00,,---,0.00,VWS V13.01,2013-02-17 00:16:00,
2013-02-16 17:17:00,55.1,6.8,30.18,NW,325,9.0,15.0,14,0.00,,---,0.00,VWS V13.01,2013-02-17 00:17:00,
2013-02-16 17:18:00,55.1,6.8,30.18,NNW,329,6.0,15.0,14,0.00,,---,0.00,VWS V13.01,2013-02-17 00:18:00,
2013-02-16 17:21:00,55.0,6.7,30.18,NW,311,7.0,15.0,14,0.00,,---,0.00,VWS V13.01,2013-02-17 00:21:00,
2013-02-16 17:23:00,54.9,6.6,30.18,WNW,301,13.0,15.0,14,0.00,,---,0.00,VWS V13.01,2013-02-17 00:23:00,
2013-02-16 17:24:00,54.8,6.5,30.18,NNW,336,4.0,15.0,14,0.00,,---,0.00,VWS V13.01,2013-02-17 00:24:00,
2013-02-16 17:26:00,54.7,6.5,30.18,NW,313,6.0,15.0,14,0.00,,---,0.00,VWS V13.01,2013-02-17 00:26:00,
2013-02-16 17:28:00,54.6,6.4,30.19,NW,314,7.0,15.0,14,0.00,,---,0.00,VWS V13.01,2013-02-17 00:28:00,
2013-02-16 17:29:00,54.5,6.3,30.18,NW,325,4.0,15.0,14,0.00,,---,0.00,VWS V13.01,2013-02-17 00:29:00,
2013-02-16 17:33:00,54.2,6.1,30.20,WNW,294,5.0,11.0,14,0.00,,---,0.00,VWS V13.01,2013-02-17 00:33:00,
2013-02-16 17:34:00,54.1,6.0,30.20,NNW,329,8.0,11.0,14,0.00,,---,0.00,VWS V13.01,2013-02-17 00:34:00,
2013-02-16 17:35:00,54.0,5.9,30.19,NNW,327,5.0,11.0,14,0.00,,---,0.00,VWS V13.01,2013-02-17 00:35:00,
2013-02-16 17:38:00,53.7,5.7,30.20,WNW,292,7.0,11.0,14,0.00,,---,0.00,VWS V13.01,2013-02-17 00:38:00,
2013-02-16 17:40:00,53.6,7.1,30.20,NNW,330,4.0,11.0,15,0.00,,---,0.00,VWS V13.01,2013-02-17 00:40:00,
2013-02-16 17:43:00,53.2,6.8,30.20,NNW,329,4.0,11.0,15,0.00,,---,0.00,VWS V13.01,2013-02-17 00:43:00,
2013-02-16 17:45:00,53.0,6.6,30.19,NW,304,1.0,5.0,15,0.00,,---,0.00,VWS V13.01,2013-02-17 00:45:00,
2013-02-16 17:48:00,52.8,6.4,30.20,NW,304,3.0,6.0,15,0.00,,---,0.00,VWS V13.01,2013-02-17 00:48:00,
2013-02-16 17:49:00,52.7,6.4,30.20,NW,305,3.0,6.0,15,0.00,,---,0.00,VWS V13.01,2013-02-17 00:49:00,
2013-02-16 17:50:00,52.6,6.3,30.19,NW,305,4.0,6.0,15,0.00,,---,0.00,VWS V13.01,2013-02-17 00:50:00,
2013-02-16 17:55:00,52.0,5.8,30.21,NW,305,3.0,6.0,15,0.00,,---,0.00,VWS V13.01,2013-02-17 00:55:00,
2013-02-16 17:57:00,51.8,5.6,30.21,NW,305,4.0,6.0,15,0.00,,---,0.00,VWS V13.01,2013-02-17 00:57:00,
2013-02-16 17:58:00,51.7,5.6,30.21,NW,304,3.0,6.0,15,0.00,,---,0.00,VWS V13.01,2013-02-17 00:58:00,
2013-02-16 17:59:00,51.6,6.9,30.21,NW,304,5.0,6.0,16,0.00,,---,0.00,VWS V13.01,2013-02-17 00:59:00,
2013-02-16 18:03:00,51.2,6.6,30.20,NW,305,2.0,6.0,16,0.00,,---,0.00,VWS V13.01,2013-02-17 01:03:00,
2013-02-16 18:04:00,51.1,6.5,30.20,NW,305,3.0,6.0,16,0.00,,---,0.00,VWS V13.01,2013-02-17 01:04:00,
2013-02-16 18:06:00,50.9,6.3,30.20,NW,304,2.0,6.0,16,0.00,,---,0.00,VWS V13.01,2013-02-17 01:06:00,
2013-02-16 18:08:00,50.7,6.2,30.19,NW,304,0.0,6.0,16,0.00,,---,0.00,VWS V13.01,2013-02-17 01:08:00,
2013-02-16 18:09:00,50.7,6.2,30.20,NW,304,6.0,6.0,16,0.00,,---,0.00,VWS V13.01,2013-02-17 01:09:00,
2013-02-16 18:12:00,50.5,6.0,30.20,NW,305,1.0,6.0,16,0.00,,---,0.00,VWS V13.01,2013-02-17 01:12:00,
2013-02-16 18:14:00,50.4,5.9,30.20,NW,304,2.0,6.0,16,0.00,,---,0.00,VWS V13.01,2013-02-17 01:14:00,
2013-02-16 18:16:00,50.4,7.2,30.21,NW,304,1.0,3.0,17,0.00,,---,0.00,VWS V13.01,2013-02-17 01:16:00,
2013-02-16 18:17:00,50.3,7.2,30.21,NW,304,1.0,4.0,17,0.00,,---,0.00,VWS V13.01,2013-02-17 01:17:00,
2013-02-16 18:20:00,50.2,7.1,30.22,NW,305,2.0,5.0,17,0.00,,---,0.00,VWS V13.01,2013-02-17 01:20:00,
2013-02-16 18:22:00,50.1,5.7,30.21,NW,305,0.0,5.0,16,0.00,,---,0.00,VWS V13.01,2013-02-17 01:22:00,
2013-02-16 18:23:00,50.1,5.7,30.21,NW,305,1.0,5.0,16,0.00,,---,0.00,VWS V13.01,2013-02-17 01:23:00,
2013-02-16 18:25:00,49.9,6.8,30.22,NW,304,2.0,5.0,17,0.00,,---,0.00,VWS V13.01,2013-02-17 01:25:00,
2013-02-16 18:28:00,49.6,6.6,30.21,NW,304,2.0,5.0,17,0.00,,---,0.00,VWS V13.01,2013-02-17 01:28:00,
2013-02-16 18:29:00,49.5,6.5,30.22,NW,305,0.0,5.0,17,0.00,,---,0.00,VWS V13.01,2013-02-17 01:29:00,
2013-02-16 18:34:00,49.2,6.3,30.22,NW,305,0.0,1.0,17,0.00,,---,0.00,VWS V13.01,2013-02-17 01:34:00,
2013-02-16 18:35:00,49.1,6.2,30.22,NW,305,0.0,1.0,17,0.00,,---,0.00,VWS V13.01,2013-02-17 01:35:00,
2013-02-16 18:36:00,49.0,6.1,30.22,NW,305,0.0,1.0,17,0.00,,---,0.00,VWS V13.01,2013-02-17 01:36:00,
2013-02-16 18:37:00,48.9,6.0,30.22,NW,304,0.0,1.0,17,0.00,,---,0.00,VWS V13.01,2013-02-17 01:37:00,
2013-02-16 18:39:00,48.7,5.8,30.22,NW,305,1.0,1.0,17,0.00,,---,0.00,VWS V13.01,2013-02-17 01:39:00,
2013-02-16 18:43:00,48.3,5.5,30.23,NW,304,0.0,1.0,17,0.00,,---,0.00,VWS V13.01,2013-02-17 01:43:00,
2013-02-16 18:44:00,48.2,5.4,30.23,NW,305,0.0,1.0,17,0.00,,---,0.00,VWS V13.01,2013-02-17 01:44:00,
2013-02-16 18:46:00,48.0,5.3,30.23,NW,304,0.0,1.0,17,0.00,,---,0.00,VWS V13.01,2013-02-17 01:46:00,
2013-02-16 18:49:00,47.8,5.1,30.24,NW,305,0.0,1.0,17,0.00,,---,0.00,VWS V13.01,2013-02-17 01:49:00,
2013-02-16 18:50:00,47.7,5.0,30.24,NW,305,0.0,1.0,17,0.00,,---,0.00,VWS V13.01,2013-02-17 01:50:00,
2013-02-16 18:51:00,47.6,4.9,30.24,NW,305,0.0,1.0,17,0.00,,---,0.00,VWS V13.01,2013-02-17 01:51:00,
2013-02-16 18:55:00,47.2,5.9,30.24,NW,304,0.0,1.0,18,0.00,,---,0.00,VWS V13.01,2013-02-17 01:55:00,
2013-02-16 18:56:00,47.1,5.8,30.24,NW,305,0.0,1.0,18,0.00,,---,0.00,VWS V13.01,2013-02-17 01:56:00,
2013-02-16 18:57:00,46.9,5.6,30.24,NW,305,0.0,1.0,18,0.00,,---,0.00,VWS V13.01,2013-02-17 01:57:00,
2013-02-16 18:59:00,46.7,5.5,30.24,NW,304,0.0,1.0,18,0.00,,---,0.00,VWS V13.01,2013-02-17 01:59:00,
2013-02-16 19:01:00,46.5,5.3,30.25,NW,305,2.0,2.0,18,0.00,,---,0.00,VWS V13.01,2013-02-17 02:01:00,
2013-02-16 19:05:00,46.1,5.0,30.25,NW,304,3.0,5.0,18,0.00,,---,0.00,VWS V13.01,2013-02-17 02:05:00,
2013-02-16 19:06:00,46.1,5.0,30.25,NW,304,4.0,5.0,18,0.00,,---,0.00,VWS V13.01,2013-02-17 02:06:00,
2013-02-16 19:07:00,46.0,4.9,30.25,NW,305,4.0,5.0,18,0.00,,---,0.00,VWS V13.01,2013-02-17 02:07:00,
2013-02-16 19:11:00,45.8,4.7,30.25,NW,305,3.0,5.0,18,0.00,,---,0.00,VWS V13.01,2013-02-17 02:11:00,
2013-02-16 19:12:00,45.7,4.6,30.25,NW,304,3.0,5.0,18,0.00,,---,0.00,VWS V13.01,2013-02-17 02:12:00,
2013-02-16 19:13:00,45.6,4.6,30.25,NW,304,3.0,5.0,18,0.00,,---,0.00,VWS V13.01,2013-02-17 02:13:00,
2013-02-16 19:16:00,45.4,4.4,30.26,NW,304,2.0,4.0,18,0.00,,---,0.00,VWS V13.01,2013-02-17 02:16:00,
2013-02-16 19:17:00,45.2,4.2,30.26,NW,304,3.0,4.0,18,0.00,,---,0.00,VWS V13.01,2013-02-17 02:17:00,
2013-02-16 19:21:00,44.8,5.1,30.26,NW,304,3.0,4.0,19,0.00,,---,0.00,VWS V13.01,2013-02-17 02:21:00,
2013-02-16 19:22:00,44.7,5.0,30.26,NW,304,3.0,4.0,19,0.00,,---,0.00,VWS V13.01,2013-02-17 02:22:00,
2013-02-16 19:23:00,44.6,4.9,30.26,NW,304,2.0,4.0,19,0.00,,---,0.00,VWS V13.01,2013-02-17 02:23:00,
2013-02-16 19:27:00,44.1,4.5,30.26,NW,305,2.0,4.0,19,0.00,,---,0.00,VWS V13.01,2013-02-17 02:27:00,
2013-02-16 19:29:00,43.9,4.3,30.26,NW,305,2.0,4.0,19,0.00,,---,0.00,VWS V13.01,2013-02-17 02:29:00,
2013-02-16 19:30:00,43.8,4.2,30.26,NW,305,3.0,3.0,19,0.00,,---,0.00,VWS V13.01,2013-02-17 02:30:00,
2013-02-16 19:32:00,43.5,4.0,30.26,NW,304,4.0,4.0,19,0.00,,---,0.00,VWS V13.01,2013-02-17 02:32:00,
2013-02-16 19:37:00,43.0,3.6,30.27,NW,305,3.0,4.0,19,0.00,,---,0.00,VWS V13.01,2013-02-17 02:37:00,
2013-02-16 19:38:00,42.9,4.6,30.27,NW,304,3.0,4.0,20,0.00,,---,0.00,VWS V13.01,2013-02-17 02:38:00,
2013-02-16 19:39:00,42.8,4.5,30.27,NW,305,4.0,4.0,20,0.00,,---,0.00,VWS V13.01,2013-02-17 02:39:00,
2013-02-16 19:41:00,42.6,4.3,30.27,NW,304,4.0,5.0,20,0.00,,---,0.00,VWS V13.01,2013-02-17 02:41:00,
2013-02-16 19:43:00,42.5,4.3,30.27,NW,305,4.0,5.0,20,0.00,,---,0.00,VWS V13.01,2013-02-17 02:43:00,
2013-02-16 19:44:00,42.4,4.2,30.27,NW,305,4.0,5.0,20,0.00,,---,0.00,VWS V13.01,2013-02-17 02:44:00,
2013-02-16 19:46:00,42.2,4.0,30.27,NW,305,4.0,5.0,20,0.00,,---,0.00,VWS V13.01,2013-02-17 02:46:00,
2013-02-16 19:49:00,42.1,3.9,30.27,NW,304,5.0,6.0,20,0.00,,---,0.00,VWS V13.01,2013-02-17 02:49:00,
2013-02-16 19:51:00,42.2,4.0,30.27,NW,304,4.0,6.0,20,0.00,,---,0.00,VWS V13.01,2013-02-17 02:51:00,
2013-02-16 19:54:00,42.2,4.0,30.27,NW,305,4.0,6.0,20,0.00,,---,0.00,VWS V13.01,2013-02-17 02:54:00,
2013-02-16 19:57:00,42.3,4.1,30.27,NW,305,4.0,6.0,20,0.00,,---,0.00,VWS V13.01,2013-02-17 02:57:00,
2013-02-16 19:59:00,42.3,4.1,30.27,NW,306,5.0,6.0,20,0.00,,---,0.00,VWS V13.01,2013-02-17 02:59:00,
2013-02-16 20:01:00,42.3,4.1,30.23,NW,323,5.0,8.0,20,0.00,,---,0.00,VWS V13.01,2013-02-17 03:01:00,
2013-02-16 20:03:00,42.3,4.1,30.23,NW,325,8.0,9.0,20,0.00,,---,0.00,VWS V13.01,2013-02-17 03:03:00,
2013-02-16 20:05:00,42.3,4.1,30.23,NNW,327,6.0,9.0,20,0.00,,---,0.00,VWS V13.01,2013-02-17 03:05:00,
2013-02-16 20:08:00,42.4,4.2,30.23,NW,309,7.0,11.0,20,0.00,,---,0.00,VWS V13.01,2013-02-17 03:08:00,
2013-02-16 20:09:00,42.5,4.3,30.23,NW,317,5.0,11.0,20,0.00,,---,0.00,VWS V13.01,2013-02-17 03:09:00,
2013-02-16 20:12:00,42.7,4.4,30.23,NW,309,7.0,11.0,20,0.00,,---,0.00,VWS V13.01,2013-02-17 03:12:00,
2013-02-16 20:14:00,42.8,4.5,30.23,WNW,302,7.0,11.0,20,0.00,,---,0.00,VWS V13.01,2013-02-17 03:14:00,
2013-02-16 20:15:00,42.8,4.5,30.23,NW,321,8.0,9.0,20,0.00,,---,0.00,VWS V13.01,2013-02-17 03:15:00,
2013-02-16 20:19:00,43.1,4.8,30.22,NW,323,7.0,11.0,20,0.00,,---,0.00,VWS V13.01,2013-02-17 03:19:00,
2013-02-16 20:20:00,43.2,4.8,30.22,NW,313,7.0,11.0,20,0.00,,---,0.00,VWS V13.01,2013-02-17 03:20:00,
2013-02-16 20:21:00,43.3,3.8,30.22,NW,317,7.0,11.0,19,0.00,,---,0.00,VWS V13.01,2013-02-17 03:21:00,
2013-02-16 20:25:00,43.4,3.9,30.22,NW,317,10.0,11.0,19,0.00,,---,0.00,VWS V13.01,2013-02-17 03:25:00,
2013-02-16 20:28:00,43.1,3.7,30.22,NW,325,6.0,11.0,19,0.00,,---,0.00,VWS V13.01,2013-02-17 03:28:00,
2013-02-16 20:29:00,42.8,4.5,30.22,NW,321,6.0,11.0,20,0.00,,---,0.00,VWS V13.01,2013-02-17 03:29:00,
2013-02-16 20:35:00,40.6,2.7,30.23,NW,325,5.0,11.0,20,0.00,,---,0.00,VWS V13.01,2013-02-17 03:35:00,
2013-02-16 20:37:00,39.8,3.1,30.24,NNW,331,5.0,11.0,21,0.00,,---,0.00,VWS V13.01,2013-02-17 03:37:00,
2013-02-16 20:41:00,38.5,2.0,30.25,NW,325,2.0,11.0,21,0.00,,---,0.00,VWS V13.01,2013-02-17 03:41:00,
2013-02-16 20:42:00,38.3,1.8,30.25,NW,325,4.0,11.0,21,0.00,,---,0.00,VWS V13.01,2013-02-17 03:42:00,
2013-02-16 20:44:00,37.9,2.5,30.25,NW,325,3.0,11.0,22,0.00,,---,0.00,VWS V13.01,2013-02-17 03:44:00,
2013-02-16 20:47:00,37.4,2.0,30.25,NW,325,3.0,6.0,22,0.00,,---,0.00,VWS V13.01,2013-02-17 03:47:00,
2013-02-16 20:49:00,37.1,1.8,30.26,NW,325,3.0,6.0,22,0.00,,---,0.00,VWS V13.01,2013-02-17 03:49:00,
2013-02-16 20:52:00,36.8,1.5,30.26,NW,325,4.0,6.0,22,0.00,,---,0.00,VWS V13.01,2013-02-17 03:52:00,
2013-02-16 20:53:00,36.7,1.5,30.26,NNW,327,5.0,9.0,22,0.00,,---,0.00,VWS V13.01,2013-02-17 03:53:00,
2013-02-16 20:55:00,36.9,2.6,30.26,NW,323,7.0,10.0,23,0.00,,---,0.00,VWS V13.01,2013-02-17 03:55:00,
2013-02-16 20:59:00,38.0,3.5,30.25,NW,325,8.0,11.0,23,0.00,,---,0.00,VWS V13.01,2013-02-17 03:59:00,
2013-02-16 21:01:00,38.8,3.2,30.21,NW,325,11.0,11.0,22,0.00,,---,0.00,VWS V13.01,2013-02-17 04:01:00,
2013-02-16 21:04:00,39.5,3.8,30.21,NW,321,6.0,11.0,22,0.00,,---,0.00,VWS V13.01,2013-02-17 04:04:00,
2013-02-16 21:05:00,39.8,4.1,30.20,NNW,333,10.0,12.0,22,0.00,,---,0.00,VWS V13.01,2013-02-17 04:05:00,
2013-02-16 21:09:00,40.6,3.7,30.20,WNW,303,7.0,13.0,21,0.00,,---,0.00,VWS V13.01,2013-02-17 04:09:00,
2013-02-16 21:10:00,40.7,3.8,30.20,NW,315,10.0,13.0,21,0.00,,---,0.00,VWS V13.01,2013-02-17 04:10:00,
2013-02-16 21:11:00,40.8,3.9,30.20,NW,326,9.0,13.0,21,0.00,,---,0.00,VWS V13.01,2013-02-17 04:11:00,
2013-02-16 21:12:00,40.8,3.9,30.20,NW,315,5.0,13.0,21,0.00,,---,0.00,VWS V13.01,2013-02-17 04:12:00,
2013-02-16 21:14:00,40.8,3.9,30.20,NW,321,7.0,13.0,21,0.00,,---,0.00,VWS V13.01,2013-02-17 04:14:00,
2013-02-16 21:16:00,40.8,3.9,30.20,NW,315,8.0,12.0,21,0.00,,---,0.00,VWS V13.01,2013-02-17 04:16:00,
2013-02-16 21:17:00,40.8,3.9,30.20,WNW,302,10.0,12.0,21,0.00,,---,0.00,VWS V13.01,2013-02-17 04:17:00,
2013-02-16 21:19:00,40.7,3.8,30.20,NW,307,5.0,12.0,21,0.00,,---,0.00,VWS V13.01,2013-02-17 04:19:00,
2013-02-16 21:23:00,40.6,3.7,30.20,NNW,327,11.0,12.0,21,0.00,,---,0.00,VWS V13.01,2013-02-17 04:23:00,
2013-02-16 21:24:00,40.7,3.8,30.20,NW,319,9.0,12.0,21,0.00,,---,0.00,VWS V13.01,2013-02-17 04:24:00,
2013-02-16 21:26:00,40.7,3.8,30.20,NW,323,10.0,12.0,21,0.00,,---,0.00,VWS V13.01,2013-02-17 04:26:00,
2013-02-16 21:29:00,40.8,3.9,30.20,NNW,330,9.0,12.0,21,0.00,,---,0.00,VWS V13.01,2013-02-17 04:29:00,
2013-02-16 21:33:00,40.8,4.9,30.20,NNW,332,7.0,13.0,22,0.00,,---,0.00,VWS V13.01,2013-02-17 04:33:00,
2013-02-16 21:34:00,40.8,4.9,30.20,NW,313,9.0,13.0,22,0.00,,---,0.00,VWS V13.01,2013-02-17 04:34:00,
2013-02-16 21:38:00,40.7,4.8,30.20,NW,325,8.0,13.0,22,0.00,,---,0.00,VWS V13.01,2013-02-17 04:38:00,
2013-02-16 21:41:00,40.4,4.6,30.20,NNW,334,11.0,13.0,22,0.00,,---,0.00,VWS V13.01,2013-02-17 04:41:00,
2013-02-16 21:43:00,40.3,4.5,30.20,NW,318,10.0,13.0,22,0.00,,---,0.00,VWS V13.01,2013-02-17 04:43:00,
2013-02-16 21:44:00,40.2,4.4,30.20,NW,320,7.0,13.0,22,0.00,,---,0.00,VWS V13.01,2013-02-17 04:44:00,
2013-02-16 21:45:00,40.2,4.4,30.20,NW,323,8.0,9.0,22,0.00,,---,0.00,VWS V13.01,2013-02-17 04:45:00,
2013-02-16 21:48:00,39.9,4.2,30.20,NNW,331,11.0,13.0,22,0.00,,---,0.00,VWS V13.01,2013-02-17 04:48:00,
2013-02-16 21:51:00,39.9,5.1,30.19,NNW,334,12.0,13.0,23,0.00,,---,0.00,VWS V13.01,2013-02-17 04:51:00,
2013-02-16 21:52:00,39.9,5.1,30.19,NNW,330,10.0,13.0,23,0.00,,---,0.00,VWS V13.01,2013-02-17 04:52:00,
2013-02-16 21:55:00,39.9,5.1,30.19,NW,325,8.0,13.0,23,0.00,,---,0.00,VWS V13.01,2013-02-17 04:55:00,
2013-02-16 21:56:00,39.9,5.1,30.19,NW,317,4.0,13.0,23,0.00,,---,0.00,VWS V13.01,2013-02-17 04:56:00,
2013-02-16 22:00:00,39.8,5.0,30.18,NW,317,8.0,10.0,23,0.00,,---,0.00,VWS V13.01,2013-02-17 05:00:00,
2013-02-16 22:01:00,39.8,5.0,30.18,NW,311,10.0,10.0,23,0.00,,---,0.00,VWS V13.01,2013-02-17 05:01:00,
2013-02-16 22:03:00,39.7,4.9,30.18,NW,304,4.0,10.0,23,0.00,,---,0.00,VWS V13.01,2013-02-17 05:03:00,
2013-02-16 22:06:00,39.3,4.6,30.19,NW,325,9.0,11.0,23,0.00,,---,0.00,VWS V13.01,2013-02-17 05:06:00,
2013-02-16 22:10:00,38.9,5.2,30.19,NW,320,5.0,11.0,24,0.00,,---,0.00,VWS V13.01,2013-02-17 05:10:00,
2013-02-16 22:12:00,38.9,5.2,30.19,West,281,8.0,11.0,24,0.00,,---,0.00,VWS V13.01,2013-02-17 05:12:00,
2013-02-16 22:14:00,38.9,5.2,30.19,NW,319,10.0,11.0,24,0.00,,---,0.00,VWS V13.01,2013-02-17 05:14:00,
2013-02-16 22:15:00,39.0,5.3,30.19,NW,325,7.0,9.0,24,0.00,,---,0.00,VWS V13.01,2013-02-17 05:15:00,
2013-02-16 22:17:00,38.9,5.2,30.18,NW,323,7.0,10.0,24,0.00,,---,0.00,VWS V13.01,2013-02-17 05:17:00,
2013-02-16 22:19:00,38.8,5.1,30.19,WNW,302,11.0,11.0,24,0.00,,---,0.00,VWS V13.01,2013-02-17 05:19:00,
2013-02-16 22:21:00,38.8,5.1,30.18,NW,309,7.0,12.0,24,0.00,,---,0.00,VWS V13.01,2013-02-17 05:21:00,
2013-02-16 22:23:00,38.7,5.0,30.18,NW,315,5.0,12.0,24,0.00,,---,0.00,VWS V13.01,2013-02-17 05:23:00,
2013-02-16 22:26:00,38.6,4.9,30.18,NW,304,9.0,13.0,24,0.00,,---,0.00,VWS V13.01,2013-02-17 05:26:00,
2013-02-16 22:29:00,38.6,4.9,30.18,NW,311,4.0,13.0,24,0.00,,---,0.00,VWS V13.01,2013-02-17 05:29:00,
2013-02-16 22:30:00,38.6,5.8,30.18,WNW,294,11.0,13.0,25,0.00,,---,0.00,VWS V13.01,2013-02-17 05:30:00,
2013-02-16 22:31:00,38.8,6.0,30.18,NW,306,5.0,11.0,25,0.00,,---,0.00,VWS V13.01,2013-02-17 05:31:00,
2013-02-16 22:34:00,39.1,6.3,30.18,WNW,296,5.0,11.0,25,0.00,,---,0.00,VWS V13.01,2013-02-17 05:34:00,
2013-02-16 22:35:00,39.3,6.4,30.18,NW,318,4.0,11.0,25,0.00,,---,0.00,VWS V13.01,2013-02-17 05:35:00,
2013-02-16 22:39:00,39.5,5.7,30.17,NW,317,5.0,11.0,24,0.00,,---,0.00,VWS V13.01,2013-02-17 05:39:00,
2013-02-16 22:43:00,39.5,5.7,30.17,NW,312,7.0,11.0,24,0.00,,---,0.00,VWS V13.01,2013-02-17 05:43:00,
2013-02-16 22:44:00,39.4,5.6,30.17,NNW,327,6.0,12.0,24,0.00,,---,0.00,VWS V13.01,2013-02-17 05:44:00,
2013-02-16 22:47:00,39.4,6.5,30.18,NNW,331,9.0,11.0,25,0.00,,---,0.00,VWS V13.01,2013-02-17 05:47:00,
2013-02-16 22:49:00,39.3,6.4,30.18,NNW,330,5.0,11.0,25,0.00,,---,0.00,VWS V13.01,2013-02-17 05:49:00,
2013-02-16 22:51:00,39.2,6.3,30.18,NW,323,7.0,12.0,25,0.00,,---,0.00,VWS V13.01,2013-02-17 05:51:00,
2013-02-16 22:53:00,39.1,6.3,30.17,NW,315,5.0,12.0,25,0.00,,---,0.00,VWS V13.01,2013-02-17 05:53:00,
2013-02-16 22:54:00,39.0,6.2,30.17,NW,310,6.0,12.0,25,0.00,,---,0.00,VWS V13.01,2013-02-17 05:54:00,
2013-02-16 22:58:00,38.9,6.1,30.17,NW,306,5.0,12.0,25,0.00,,---,0.00,VWS V13.01,2013-02-17 05:58:00,
2013-02-16 23:00:00,38.9,6.1,30.17,WNW,299,6.0,12.0,25,0.00,,---,0.00,VWS V13.01,2013-02-17 06:00:00,
2013-02-16 23:03:00,39.2,6.3,30.15,NW,313,5.0,10.0,25,0.00,,---,0.00,VWS V13.01,2013-02-17 06:03:00,
2013-02-16 23:05:00,39.3,6.4,30.15,NW,315,5.0,10.0,25,0.00,,---,0.00,VWS V13.01,2013-02-17 06:05:00,
2013-02-16 23:10:00,39.5,7.5,30.13,NW,315,7.0,10.0,26,0.00,,---,0.00,VWS V13.01,2013-02-17 06:10:00,
2013-02-16 23:11:00,39.5,7.5,30.13,NNW,329,5.0,10.0,26,0.00,,---,0.00,VWS V13.01,2013-02-17 06:11:00,
2013-02-16 23:12:00,39.6,7.6,30.13,NW,322,7.0,10.0,26,0.00,,---,0.00,VWS V13.01,2013-02-17 06:12:00,
2013-02-16 23:15:00,39.6,7.6,30.13,NW,319,6.0,10.0,26,0.00,,---,0.00,VWS V13.01,2013-02-17 06:15:00,
2013-02-16 23:16:00,39.7,7.6,30.13,NNW,331,5.0,10.0,26,0.00,,---,0.00,VWS V13.01,2013-02-17 06:16:00,
2013-02-16 23:20:00,39.5,7.5,30.13,NNW,330,8.0,11.0,26,0.00,,---,0.00,VWS V13.01,2013-02-17 06:20:00,
2013-02-16 23:23:00,39.3,7.3,30.14,NNW,330,4.0,11.0,26,0.00,,---,0.00,VWS V13.01,2013-02-17 06:23:00,
2013-02-16 23:26:00,38.9,6.9,30.14,NW,325,6.0,11.0,26,0.00,,---,0.00,VWS V13.01,2013-02-17 06:26:00,
2013-02-16 23:28:00,38.6,6.7,30.14,NW,326,4.0,11.0,26,0.00,,---,0.00,VWS V13.01,2013-02-17 06:28:00,
2013-02-16 23:30:00,38.3,6.4,30.13,NW,323,5.0,11.0,26,0.00,,---,0.00,VWS V13.01,2013-02-17 06:30:00,
2013-02-16 23:31:00,38.0,7.0,30.14,NW,319,5.0,8.0,27,0.00,,---,0.00,VWS V13.01,2013-02-17 06:31:00,
2013-02-16 23:33:00,37.8,6.8,30.14,NW,321,2.0,8.0,27,0.00,,---,0.00,VWS V13.01,2013-02-17 06:33:00,
2013-02-16 23:36:00,37.8,6.8,30.13,WNW,300,4.0,9.0,27,0.00,,---,0.00,VWS V13.01,2013-02-17 06:36:00,
2013-02-16 23:38:00,37.9,6.9,30.13,WNW,302,4.0,9.0,27,0.00,,---,0.00,VWS V13.01,2013-02-17 06:38:00,
2013-02-16 23:39:00,38.0,7.0,30.14,WNW,303,7.0,9.0,27,0.00,,---,0.00,VWS V13.01,2013-02-17 06:39:00,
2013-02-16 23:42:00,38.3,7.3,30.14,NW,305,6.0,9.0,27,0.00,,---,0.00,VWS V13.01,2013-02-17 06:42:00,
2013-02-16 23:43:00,38.4,7.3,30.14,WNW,288,4.0,9.0,27,0.00,,---,0.00,VWS V13.01,2013-02-17 06:43:00,
2013-02-16 23:44:00,38.5,7.4,30.14,WNW,303,4.0,9.0,27,0.00,,---,0.00,VWS V13.01,2013-02-17 06:44:00,
2013-02-16 23:46:00,38.6,7.5,30.14,WNW,290,6.0,7.0,27,0.00,,---,0.00,VWS V13.01,2013-02-17 06:46:00,
2013-02-16 23:50:00,38.7,7.6,30.14,WNW,295,7.0,9.0,27,0.00,,---,0.00,VWS V13.01,2013-02-17 06:50:00,
2013-02-16 23:51:00,38.6,7.5,30.14,NW,306,4.0,9.0,27,0.00,,---,0.00,VWS V13.01,2013-02-17 06:51:00,
2013-02-16 23:53:00,38.6,7.5,30.14,NW,307,5.0,9.0,27,0.00,,---,0.00,VWS V13.01,2013-02-17 06:53:00,
2013-02-16 23:57:00,38.2,7.2,30.13,WNW,302,5.0,9.0,27,0.00,,---,0.00,VWS V13.01,2013-02-17 06:57:00,
2013-02-16 23:59:00,38.0,7.0,30.14,WNW,299,6.0,9.0,27,0.00,,---,0.00,VWS V13.01,2013-02-17 06:59:00,